GFSFLT2_250_spd_003.txt.gz
Wind_Speed
64 53 47 39 35 30 27 26 22 22 23 22 21 20 19 16 16 17 19 20 21 22 20 20 22 27 33 41 44 49 47 42
43 37 41 31 28 26 20 18 19 19 22 21 21 20 17 15 16 16 18 18 17 17 17 18 17 20 27 35 42 49 51 48
26 25 22 22 21 22 22 22 23 25 26 27 27 25 26 24 23 20 22 23 20 19 19 21 20 19 18 25 35 41 53 51
19 22 20 20 21 20 20 20 20 22 25 26 27 25 25 25 25 25 25 23 23 20 17 18 19 22 23 23 26 37 43 55
17 17 16 17 19 18 20 20 22 23 23 24 25 26 27 26 26 25 26 25 24 22 20 18 16 17 18 24 30 30 35 49
11 16 17 17 19 22 21 22 21 20 21 23 25 26 27 28 27 26 25 26 26 25 25 23 21 23 23 20 18 23 33 39
21 24 24 24 26 27 26 26 26 28 29 28 29 29 32 34 34 33 33 32 31 31 29 27 27 30 31 27 27 25 21 26
29 28 27 28 30 31 32 34 35 36 37 38 40 41 41 40 39 39 38 38 37 35 34 35 34 34 35 35 34 33 32 30
33 32 33 34 34 34 36 38 42 43 44 44 46 45 45 46 45 43 41 41 42 43 42 42 41 41 41 43 41 41 42 41
31 32 36 36 38 41 42 45 47 47 47 48 48 47 46 46 47 46 47 48 50 51 51 51 52 52 51 50 49 49 50 51
39 40 43 46 49 45 45 48 49 49 47 47 47 48 50 52 53 53 54 55 56 58 59 59 61 62 62 60 60 60 59 58
44 46 47 46 48 50 49 51 52 55 53 54 55 56 57 59 60 61 62 62 64 65 68 71 71 70 69 68 69 69 69 69
47 48 50 50 52 51 53 57 58 60 60 62 63 65 69 67 67 65 65 67 69 71 73 75 77 80 79 80 80 79 77 79
48 51 50 52 53 56 59 62 64 65 64 65 66 67 69 70 74 77 79 81 83 85 88 89 88 89 91 92 91 92 90 89
48 51 53 57 59 61 62 63 64 67 68 70 71 73 76 79 81 81 86 90 93 96 98 99 99 99 98 98 97 93 95 95
56 59 60 60 61 64 66 69 70 72 72 73 78 82 83 86 88 89 91 95 96 98 100 101 103 100 97 99 95 92 91 93
59 61 61 63 67 71 74 76 76 77 81 84 87 88 90 94 96 97 95 98 103 101 99 99 102 103 101 97 96 92 92 90
59 61 67 71 75 79 81 81 82 84 87 87 89 94 97 99 100 103 104 108 111 104 100 101 102 102 100 98 96 92 86 86
65 70 74 78 79 79 80 81 86 91 94 96 99 101 103 105 109 111 113 114 113 104 102 100 100 99 97 94 92 89 84 82
70 73 74 76 81 84 88 92 94 98 103 108 109 112 113 116 116 117 117 112 106 99 96 97 95 93 90 90 88 84 79 76

GFSFLT2_250_spd_006.txt.gz
Wind_Speed
82 64 45 37 27 24 22 21 20 21 21 22 23 25 28 28 26 25 26 28 27 26 23 24 22 17 15 17 25 29 34 37
50 42 30 18 17 20 20 21 19 21 22 22 22 23 20 22 22 22 24 25 25 26 25 23 24 22 19 16 19 24 32 36
27 21 16 14 15 18 19 20 21 21 21 21 21 21 20 20 21 22 24 23 22 21 22 21 22 21 18 19 18 22 26 33
15 13 14 17 15 17 18 18 19 19 19 20 21 23 23 23 25 29 29 26 25 24 22 21 20 21 17 17 16 20 24 31
15 15 19 17 19 19 21 23 24 24 27 28 28 28 31 32 32 33 33 33 32 29 27 25 24 22 21 19 21 19 19 24
15 17 19 20 22 24 25 27 28 30 30 32 34 36 36 36 36 36 36 36 36 36 34 30 28 28 25 24 24 23 23 20
20 23 24 26 29 31 33 35 36 38 38 39 40 40 40 39 38 38 37 38 37 37 37 36 34 32 30 30 30 30 30 29
27 31 35 36 37 39 40 42 43 42 42 42 42 43 42 41 40 41 40 38 37 37 39 41 41 40 39 39 38 35 35 37
33 35 36 39 39 41 43 44 44 44 44 44 46 43 46 48 48 47 47 48 49 47 46 45 45 47 48 48 46 45 44 43
36 40 42 43 45 43 44 47 46 46 47 46 47 50 50 51 51 52 53 54 54 53 52 54 55 57 57 56 55 55 56 55
40 39 42 45 46 46 47 46 47 48 49 51 53 55 56 57 58 59 59 61 62 60 59 59 61 64 65 65 65 65 64 63
36 40 44 45 45 43 45 48 51 53 55 56 57 59 61 64 66 69 69 70 69 69 70 70 68 64 65 68 71 72 75 74
39 43 47 45 45 49 52 54 56 58 60 62 64 67 69 71 69 68 70 72 74 74 74 75 74 78 74 74 77 76 82 83
46 46 45 47 50 55 56 59 60 62 65 68 70 71 71 70 70 72 76 77 76 83 85 87 86 88 87 87 81 84 87 89
44 48 52 54 55 57 59 61 66 68 70 71 71 71 72 74 76 81 83 85 87 90 92 95 96 96 100 96 95 91 95 94
50 53 54 55 57 60 63 65 68 69 69 72 75 76 79 81 85 87 87 89 92 96 96 99 102 101 104 105 101 100 99 99
52 53 56 57 60 63 66 68 71 74 77 78 83 86 88 91 93 96 99 100 104 106 109 110 110 109 108 105 106 100 102 101
56 59 62 66 67 72 75 77 79 84 87 91 94 97 98 100 105 107 111 114 117 116 117 112 111 108 107 107 106 107 101 102
63 66 70 69 76 80 82 86 89 92 95 99 103 104 108 110 113 119 121 121 123 124 117 111 107 106 104 104 105 105 104 100
64 67 69 74 79 84 87 91 94 97 100 106 109 113 117 121 123 125 126 129 126 119 107 103 100 96 97 97 97 96 95 95

GFSFLT2_250_spd_009.txt.gz
Wind_Speed
89 89 85 77 57 32 17 17 18 17 17 18 19 21 23 24 25 26 28 28 27 29 29 30 31 31 31 23 20 18 19 21
80 75 58 42 25 20 17 17 19 19 20 21 23 24 22 21 23 26 27 27 26 26 26 27 27 28 27 26 21 19 16 17
57 38 29 21 19 18 18 19 21 22 22 23 24 25 26 27 28 29 30 29 28 27 25 24 26 26 25 23 24 20 15 15
30 24 22 20 21 23 25 26 25 26 27 28 29 29 30 31 33 33 34 32 31 29 27 27 27 26 26 24 22 23 19 16
23 24 22 21 22 22 24 26 28 29 31 33 35 36 37 37 36 37 37 36 35 34 31 28 28 28 27 27 24 23 24 20
26 27 27 27 30 31 31 33 35 36 38 38 40 42 43 43 42 40 41 40 38 36 34 34 30 29 29 29 30 28 26 27
29 31 31 33 38 40 38 41 42 44 45 44 45 46 46 46 46 45 46 43 41 39 38 39 39 37 36 34 33 33 33 32
33 35 38 40 43 43 46 48 47 48 46 45 45 45 47 47 48 49 47 47 46 46 46 46 46 46 45 45 42 40 39 39
38 42 42 43 45 45 44 47 49 50 49 46 46 47 49 49 49 51 52 52 53 53 54 54 54 54 54 52 50 48 47 47
41 43 44 43 44 44 44 47 48 45 46 48 50 51 53 53 54 55 56 58 59 60 60 60 60 59 59 60 59 59 58 56
38 41 41 42 45 45 49 50 47 48 50 53 54 55 55 56 59 60 61 62 65 65 65 63 62 64 65 64 63 62 63 64
40 40 42 45 47 50 48 48 51 54 55 55 55 57 59 62 64 66 67 66 65 67 68 69 69 72 74 70 70 73 71 73
46 46 50 48 45 47 52 54 55 56 56 58 61 65 67 67 68 68 69 70 69 71 74 74 75 77 75 76 74 75 77 82
47 43 46 49 51 53 56 57 59 63 65 66 66 69 73 75 74 76 78 79 83 85 86 84 85 87 89 88 85 85 90 90
46 51 51 53 53 55 59 61 64 68 71 71 74 74 74 75 78 80 82 86 87 88 89 91 91 93 101 103 101 94 100 102
54 55 55 55 59 61 64 65 67 69 69 70 77 80 83 87 89 91 95 97 97 97 100 100 105 104 107 112 113 110 111 110
56 56 58 63 66 67 66 68 74 75 77 79 84 89 91 93 97 101 103 104 105 108 110 112 113 115 116 116 117 118 120 113
60 63 64 67 67 67 72 76 79 82 85 90 94 98 101 105 108 112 114 117 117 120 121 123 121 121 122 124 119 119 118 115
65 67 68 67 68 76 80 83 87 91 94 98 102 106 109 112 116 120 123 126 127 129 129 128 126 122 116 113 109 104 101 102
68 70 70 72 76 82 86 91 94 97 102 105 111 114 117 122 125 127 132 136 134 133 131 127 122 112 103 98 96 100 97 95

GFSFLT2_250_spd_012.txt.gz
Wind_Speed
94 92 90 90 82 72 67 45 32 23 19 21 22 24 24 24 28 31 33 33 33 33 31 31 30 28 30 28 26 25 17 3
116 91 76 72 71 55 39 25 22 21 21 20 23 25 29 31 32 34 35 35 34 32 30 29 31 30 28 27 25 24 19 13
79 73 69 62 44 34 25 24 25 26 26 25 28 29 30 35 34 36 36 37 36 33 33 30 28 26 27 25 24 23 20 16
66 58 51 42 33 30 28 31 31 32 33 31 33 36 38 39 41 39 37 38 39 37 34 31 31 27 26 26 23 21 20 17
48 42 37 32 32 33 35 36 37 38 39 40 41 42 44 42 42 41 42 42 39 37 36 35 32 31 29 28 28 25 23 21
36 31 32 32 36 36 38 39 41 47 51 48 48 48 45 47 47 46 46 46 44 44 41 40 39 38 38 36 34 34 32 29
34 35 36 37 41 41 44 45 47 51 49 49 51 50 51 49 49 49 49 48 48 47 45 45 43 42 42 43 43 42 41 37
35 40 43 45 47 48 50 50 52 51 49 50 51 51 51 50 49 48 49 50 50 51 51 51 50 50 50 49 48 46 44 44
40 45 51 48 49 51 49 50 51 49 50 53 54 48 50 51 53 52 52 51 51 53 55 57 58 58 57 55 54 54 51 47
15 46 56 51 49 49 48 47 50 52 54 50 53 54 56 56 55 55 55 56 59 61 61 61 59 59 59 57 56 57 57 57
35 44 48 48 45 47 49 52 54 53 53 54 59 57 59 59 60 61 61 59 60 61 61 62 62 65 66 64 63 65 67 67
36 40 46 45 49 49 49 50 54 56 58 55 61 61 63 63 65 67 66 66 65 66 65 67 69 70 71 73 75 76 75 73
42 44 51 47 46 52 58 57 56 55 59 61 66 66 67 67 68 69 70 71 73 75 77 76 79 82 80 81 80 81 82 82
45 48 51 51 55 57 58 59 60 62 65 67 65 66 69 72 73 72 75 79 82 83 84 84 85 88 90 92 91 89 93 93
50 52 52 58 59 59 63 65 67 69 70 70 68 73 76 79 82 84 85 88 92 92 95 97 94 96 101 104 103 100 100 102
54 54 56 64 66 63 65 69 70 73 73 73 78 81 84 86 89 93 95 96 99 101 103 106 105 106 108 114 117 117 117 111
57 58 62 67 68 69 71 71 71 75 77 80 85 90 93 97 101 102 104 106 110 112 113 116 118 122 121 124 124 124 122 117
59 66 69 68 69 74 75 78 83 86 89 91 94 98 102 107 109 111 115 118 121 123 125 126 129 130 130 128 123 117 113 111
65 70 72 74 73 74 80 85 89 91 94 99 102 106 111 114 118 122 124 127 130 132 134 137 135 131 128 122 114 106 101 99
63 69 74 76 79 80 83 88 93 96 102 106 110 115 120 124 127 131 135 136 137 137 136 131 123 116 111 106 100 98 95 95

GFSFLT2_250_spd_015.txt.gz
Wind_Speed
100 100 102 107 108 88 84 74 61 52 42 35 27 30 28 26 28 30 30 34 36 34 33 32 30 26 26 23 20 15 18 18
101 103 101 96 82 74 60 56 46 38 32 31 31 31 32 31 34 36 37 39 41 40 37 35 32 30 26 24 22 16 10 14
94 92 87 81 66 57 53 44 42 38 37 37 37 38 38 39 40 42 44 45 45 43 39 36 35 32 28 26 25 23 16 13
92 85 72 71 61 51 45 38 39 41 39 41 45 45 45 50 46 47 48 47 47 46 43 40 36 34 32 29 26 26 23 19
83 72 59 55 53 42 38 36 41 46 46 47 47 48 49 50 50 47 49 50 49 48 44 41 40 39 35 32 31 29 25 24
65 56 49 43 45 44 47 47 45 50 54 54 56 55 53 54 51 49 49 48 48 46 47 46 45 42 41 38 36 35 36 32
47 41 35 44 53 47 44 48 50 50 54 57 58 56 54 52 52 52 49 49 51 52 52 52 51 47 44 45 45 44 44 43
31 28 35 40 45 43 46 52 54 54 56 55 55 54 55 54 51 49 51 53 54 54 53 52 51 49 50 50 51 50 48 47
25 24 24 32 49 46 54 58 53 45 48 53 58 54 53 52 53 55 55 56 57 57 55 54 52 52 52 51 49 50 50 53
29 36 41 39 53 49 52 54 52 55 49 48 56 61 59 59 58 58 61 61 59 61 59 58 58 59 56 53 53 54 56 57
29 29 43 46 47 54 54 58 58 52 53 57 55 58 60 61 63 66 65 64 62 63 65 67 66 65 64 63 64 63 63 63
31 33 38 40 49 54 57 55 52 56 60 61 61 62 65 68 68 68 68 65 66 70 71 72 72 73 73 74 74 75 75 74
36 41 43 46 50 56 60 58 59 60 65 63 62 63 66 70 72 73 71 73 77 79 79 79 81 84 84 83 82 84 84 84
43 45 50 53 57 59 59 62 64 68 68 67 68 71 72 71 73 76 78 79 83 86 87 88 90 95 95 95 92 91 92 92
50 52 54 56 58 57 61 65 68 70 71 73 75 77 79 82 84 85 86 88 91 93 97 100 102 105 109 108 104 100 99 100
51 55 60 60 57 60 63 66 70 74 76 78 81 84 88 92 94 96 98 101 104 108 112 114 115 114 115 117 118 116 113 107
57 59 61 60 61 65 66 72 76 79 82 85 87 91 95 99 101 104 108 112 116 122 124 125 124 124 123 122 125 124 121 110
60 59 61 61 65 67 70 77 83 87 90 92 95 100 104 108 110 113 118 122 126 130 129 127 125 123 125 122 119 113 110 108
60 63 67 69 71 71 76 81 85 89 93 97 101 107 111 114 119 126 131 133 135 135 131 127 121 117 113 110 105 101 96 95
58 61 67 73 78 82 86 90 93 98 102 107 110 114 118 124 131 134 134 136 134 129 125 119 112 108 107 103 97 95 91 89

GFSFLT2_250_spd_021.txt.gz
Wind_Speed
88 87 88 90 89 91 92 95 95 96 99 99 86 77 61 53 51 47 47 44 46 48 49 50 52 53 51 48 43 43 40 36
87 88 86 89 93 90 88 93 96 97 92 83 69 63 52 50 49 48 48 47 52 53 53 54 54 53 46 44 42 42 42 37
88 92 88 90 85 90 93 94 87 80 74 69 59 53 52 50 51 48 47 52 53 55 54 53 51 48 46 40 38 39 40 40
87 88 88 89 92 92 90 81 83 71 62 55 52 52 52 51 49 47 51 57 52 50 46 46 48 49 44 39 40 42 41 41
86 83 88 91 90 89 89 90 69 55 54 52 53 50 48 48 47 51 57 54 53 53 50 51 50 49 47 47 46 43 43 44
87 86 89 90 91 82 75 65 56 52 57 55 51 52 49 53 50 51 57 56 56 50 51 52 51 51 52 51 48 47 50 50
85 88 89 85 78 73 57 50 53 55 57 58 60 60 57 57 56 61 62 60 56 54 53 54 55 55 55 55 55 56 57 56
87 86 84 74 61 55 54 52 55 60 57 58 62 62 61 62 61 57 58 59 58 57 56 58 58 58 59 60 60 62 63 62
88 78 59 54 55 53 53 54 58 59 56 56 62 63 64 60 63 62 62 62 61 61 62 62 62 63 64 65 66 67 67 66
62 50 48 49 52 58 58 57 58 60 63 64 68 71 68 69 70 69 69 63 63 64 65 65 65 66 68 71 71 71 70 67
44 41 46 52 55 63 65 62 63 62 62 64 63 64 69 71 71 73 72 70 70 70 70 70 70 71 73 75 77 77 77 76
37 42 49 56 64 66 67 67 67 69 65 65 66 68 70 73 75 74 72 73 74 77 78 80 79 79 79 79 82 85 86 85
40 48 55 60 66 66 69 70 69 68 67 69 71 73 75 75 73 75 74 77 79 80 81 84 88 89 88 87 86 87 90 91
46 52 57 61 63 66 69 69 69 70 72 74 75 75 75 77 77 78 79 82 86 89 89 90 92 95 96 96 94 96 99 101
55 56 59 58 61 65 66 68 69 71 73 74 76 79 81 81 83 86 88 90 93 96 98 100 102 105 106 106 106 104 104 109
51 53 55 57 59 63 66 68 70 72 74 78 80 81 83 87 89 92 97 102 103 107 111 114 115 116 118 119 118 120 120 115
54 54 55 58 61 65 68 71 73 76 79 80 82 86 89 93 100 103 107 109 113 116 119 120 120 123 124 123 123 123 122 117
52 54 57 60 63 65 68 72 74 78 80 83 88 91 96 100 105 109 113 117 119 123 125 126 125 124 123 122 121 117 115 112
53 56 59 62 65 68 71 74 77 80 83 87 92 96 100 104 109 113 117 123 127 128 128 126 125 123 120 120 116 110 104 101
56 58 62 66 68 71 73 76 79 82 87 91 96 101 106 111 116 121 124 128 128 127 126 124 125 123 119 116 106 102 96 92

GFSFLT2_250_spd_024.txt.gz
Wind_Speed
84 84 82 80 83 87 88 92 93 95 96 93 98 99 98 92 79 72 71 65 58 57 50 48 53 54 52 53 49 47 44 40
77 80 84 82 85 88 88 86 88 95 95 95 96 92 84 81 68 63 61 58 55 51 50 52 49 47 46 43 43 44 44 40
84 81 83 87 87 91 88 91 97 96 92 93 88 80 72 69 64 59 59 55 53 50 51 51 47 51 52 47 47 45 41 40
83 85 88 90 88 84 89 87 94 93 86 84 76 72 67 62 64 60 56 55 56 52 52 53 53 53 51 46 45 46 46 45
88 87 85 89 86 87 88 87 91 82 79 70 69 70 65 66 63 59 59 57 59 59 55 57 52 52 51 50 46 44 46 48
79 87 90 84 83 88 91 84 80 72 68 66 64 63 64 61 65 64 65 60 58 57 55 57 58 56 54 52 52 50 50 50
76 77 77 82 83 79 76 71 62 66 68 66 65 66 66 66 65 64 65 64 66 63 61 64 64 60 56 57 58 58 57 55
84 85 83 83 80 76 69 68 68 70 67 66 66 65 64 65 65 67 68 70 68 66 68 69 68 66 63 62 63 63 60 58
79 83 86 84 75 66 62 65 74 67 63 65 66 66 66 67 67 69 70 69 65 67 70 71 72 69 67 69 67 67 66 64
80 71 70 62 60 53 50 60 65 65 68 69 69 69 70 72 74 72 70 69 69 72 74 75 73 69 71 72 73 74 74 74
64 55 51 43 52 57 53 60 69 73 70 71 72 74 76 77 76 73 73 74 76 78 80 77 75 74 73 73 76 78 78 79
49 45 37 33 63 57 65 68 71 72 74 75 77 79 78 75 75 76 77 79 81 81 80 80 78 78 79 81 84 86 88 88
42 38 37 63 63 66 69 72 74 78 79 80 79 79 77 77 77 78 80 81 80 82 84 85 87 87 87 88 89 91 94 95
42 44 49 55 61 64 70 74 78 79 80 80 80 80 79 79 80 80 81 84 86 87 87 89 92 93 94 95 98 99 101 104
53 56 59 63 65 68 70 72 73 74 76 78 79 80 81 81 83 86 88 89 90 91 93 94 97 102 105 106 107 107 108 109
54 58 60 62 65 65 66 69 72 73 74 77 79 82 85 87 88 90 92 93 96 98 100 105 108 112 116 119 122 123 124 120
44 47 52 57 58 60 64 67 71 73 76 80 82 84 86 88 90 91 96 98 103 106 110 115 118 121 125 127 129 131 130 126
48 52 55 58 60 62 65 68 70 73 76 79 81 83 86 90 94 98 101 105 109 113 118 122 126 130 131 129 127 124 122 117
52 55 58 61 63 64 66 69 71 74 76 79 83 87 91 95 97 102 108 113 118 123 124 126 127 127 126 123 121 119 115 112
53 56 59 60 62 64 67 70 72 75 78 82 87 90 95 101 106 112 118 121 124 126 127 123 122 122 122 119 117 114 108 100

GFSFLT2_250_spd_027.txt.gz
Wind_Speed
77 79 81 79 83 87 87 85 89 87 89 93 91 86 87 88 89 90 85 77 81 76 63 59 57 50 49 47 43 44 44 41
82 79 78 76 76 82 85 85 87 94 94 95 95 94 90 89 93 82 78 77 72 67 61 59 53 50 49 53 48 46 42 37
73 76 81 81 80 76 82 88 94 91 94 94 93 91 88 88 76 80 77 73 67 63 60 57 60 54 48 48 44 46 46 40
72 69 74 75 81 86 89 94 88 92 88 89 84 90 86 79 74 74 73 67 63 61 61 59 58 51 49 46 45 47 49 46
61 71 73 81 85 86 85 91 88 88 89 93 91 82 79 72 72 69 66 65 64 61 60 60 60 59 58 58 53 49 50 49
71 80 85 78 82 91 86 84 86 84 89 88 85 84 74 66 67 65 65 63 62 62 60 61 65 63 60 56 56 54 54 52
62 64 71 78 80 82 86 87 87 88 88 86 77 72 68 64 66 64 65 63 63 64 66 68 70 70 66 63 61 60 60 58
69 71 72 75 79 84 86 86 83 79 72 73 71 69 66 63 63 67 67 68 69 70 74 74 72 71 69 68 66 65 64 62
70 75 75 77 78 81 81 67 61 61 64 66 72 72 71 72 73 74 74 74 77 79 77 75 73 71 72 73 73 72 68 66
71 70 72 75 71 64 58 56 60 58 57 65 72 70 72 79 80 80 81 81 83 81 78 77 76 75 75 75 74 73 72 71
69 71 66 57 54 50 51 46 54 55 59 68 68 77 83 85 85 85 88 86 86 84 81 77 77 78 78 78 79 80 80 79
58 54 47 33 48 48 48 59 61 71 74 80 85 88 90 90 89 90 87 86 84 81 81 82 82 81 83 85 87 85 84 84
48 41 44 32 54 52 54 62 66 77 85 91 92 92 91 90 88 88 85 82 83 84 86 87 88 88 87 87 88 89 89 91
45 43 44 43 55 62 62 63 70 79 83 85 84 86 86 86 85 85 86 87 88 89 90 90 90 90 90 91 92 95 96 99
42 44 47 48 53 61 64 66 70 73 76 77 78 79 81 83 85 85 86 88 89 90 90 91 93 95 97 101 102 104 106 109
41 42 45 48 52 55 58 62 66 70 72 74 76 78 79 81 83 85 86 88 90 91 93 97 102 106 109 113 116 118 121 118
40 43 46 49 51 54 58 62 65 66 68 70 73 76 79 81 82 84 86 89 92 97 103 106 109 112 115 118 122 125 126 127
44 47 50 53 56 59 62 65 67 69 70 72 73 76 77 78 80 85 91 95 100 106 109 113 115 118 118 119 118 118 119 122
51 54 56 59 61 63 65 66 68 69 70 71 73 73 77 82 86 92 98 102 107 108 110 112 114 111 111 113 116 119 120 117
54 56 58 60 62 63 64 64 65 67 68 70 74 78 81 87 92 98 102 107 107 110 109 107 107 109 109 109 112 113 111 106

GFSFLT2_250_spd_030.txt.gz
Wind_Speed
62 68 72 73 68 74 75 72 77 89 77 78 82 86 88 91 85 86 86 81 81 75 74 67 63 61 58 52 53 49 49 42
65 72 79 81 85 84 80 83 75 72 83 80 85 89 87 83 84 84 77 78 80 72 68 64 60 55 55 53 51 49 46 41
81 77 72 76 71 74 78 66 67 77 79 82 85 83 82 78 81 81 82 83 80 69 65 61 59 57 55 52 50 46 46 46
66 69 66 67 66 75 70 70 74 80 85 84 82 84 81 82 86 84 81 77 69 67 61 59 58 58 55 56 54 52 47 46
58 62 58 65 60 62 70 75 71 75 76 80 86 86 86 88 88 86 79 72 64 61 62 59 61 59 57 57 58 57 53 49
64 59 57 63 69 67 71 77 78 79 81 88 86 86 86 89 84 80 72 59 60 59 63 65 64 61 62 61 63 61 58 55
54 60 59 62 68 72 76 79 77 80 83 85 85 85 83 80 79 71 63 65 67 66 70 71 72 69 68 68 66 60 59 59
64 67 64 68 72 72 76 77 82 79 81 80 76 79 77 77 74 72 71 72 71 75 84 82 83 83 80 75 70 68 66 64
60 64 66 69 72 72 73 72 73 73 68 67 70 73 69 74 74 70 71 74 76 84 89 92 91 87 83 79 76 73 70 68
62 63 64 71 68 69 66 63 65 61 61 63 62 65 68 73 76 77 71 82 83 90 96 98 90 86 84 80 79 77 75 74
66 68 66 64 60 54 46 53 55 57 51 59 64 65 71 74 76 85 89 88 96 99 104 94 88 84 83 82 81 80 80 80
58 56 55 58 49 44 46 50 53 57 57 62 68 71 78 81 88 92 94 98 103 100 90 86 85 83 85 84 83 83 82 81
54 49 50 49 47 48 56 56 62 64 63 65 73 79 82 87 92 95 96 88 87 89 88 87 86 86 85 84 84 82 81 83
46 45 44 42 42 45 50 57 64 71 75 78 80 84 88 88 87 87 88 88 87 86 86 87 85 82 81 85 87 91 94 94
40 42 43 43 44 47 52 56 59 70 73 73 73 76 80 81 83 85 86 88 87 85 82 82 85 90 91 95 99 103 107 110
34 37 41 44 47 50 53 56 59 64 68 71 74 77 80 81 82 83 82 81 80 81 86 90 94 97 100 104 107 110 113 112
37 40 44 48 51 55 58 62 65 69 72 74 75 75 74 72 71 71 74 79 84 86 92 96 101 105 110 112 114 114 112 112
41 44 48 51 55 58 61 65 67 69 69 69 68 67 66 68 73 77 81 85 89 95 98 105 107 109 112 114 113 110 112 113
43 45 48 51 54 57 59 62 64 66 66 65 65 66 69 74 79 83 87 91 96 100 105 108 108 110 110 110 108 107 106 108
44 46 49 51 54 57 59 61 63 65 64 64 67 72 76 81 86 89 93 99 102 105 106 108 107 109 109 104 103 101 101 101

GFSFLT2_250_spd_033.txt.gz
Wind_Speed
53 55 53 57 63 63 56 61 64 64 80 81 84 75 67 76 83 78 74 76 72 71 75 81 77 71 66 61 58 56 54 49
53 54 58 63 62 60 60 70 77 72 74 72 70 71 75 74 73 72 74 80 76 77 75 77 74 65 62 58 56 53 53 50
51 52 62 71 74 80 75 79 82 79 80 79 77 77 75 78 74 76 81 83 79 78 81 72 66 58 54 52 52 53 54 50
78 76 76 74 78 82 79 79 78 75 76 73 70 75 76 83 84 82 81 79 80 80 78 72 61 52 52 50 53 51 52 51
84 81 81 78 75 71 72 71 73 70 74 76 74 80 85 84 84 83 80 80 81 75 70 63 60 60 54 55 53 58 57 54
66 69 66 66 65 65 62 68 68 70 77 81 82 82 85 86 81 76 80 79 80 69 63 65 60 60 64 67 71 68 67 65
65 67 71 70 70 67 69 71 74 74 77 82 83 86 84 85 83 79 77 74 70 67 68 70 59 67 70 76 83 79 84 77
67 71 70 70 72 67 69 73 71 77 80 81 83 82 83 81 79 76 73 72 69 71 77 77 74 79 78 83 89 89 92 89
75 73 72 71 68 68 72 75 78 82 83 78 78 73 70 71 69 69 68 61 66 66 81 76 79 86 91 92 95 99 95 85
74 68 63 65 68 69 68 72 76 76 70 64 62 65 66 65 66 70 75 70 78 80 82 83 88 91 97 102 99 90 84 82
56 58 62 64 66 66 66 67 69 69 68 58 56 61 62 67 70 75 80 82 84 87 89 94 95 97 92 92 89 86 82 81
61 60 59 62 65 69 66 65 65 62 64 64 62 67 71 76 79 83 84 86 90 91 95 102 101 95 91 90 90 88 83 79
61 61 66 65 64 60 62 62 62 64 65 67 70 73 77 81 86 89 92 95 96 97 94 91 92 92 89 84 80 82 82 80
60 57 52 51 50 49 49 49 51 54 58 65 68 72 75 77 79 85 92 93 87 88 91 89 84 80 79 79 81 85 91 96
47 41 43 41 41 42 45 47 50 54 58 62 67 71 75 79 82 85 87 88 88 86 80 77 80 84 87 91 93 96 98 105
34 33 35 39 43 47 50 54 57 61 64 68 70 75 78 80 80 81 80 77 74 75 80 82 86 89 94 101 104 107 109 108
32 35 40 43 47 49 51 53 54 55 57 60 64 66 69 71 71 70 69 70 75 81 86 91 97 101 103 105 110 112 113 113
35 38 40 44 47 50 53 54 55 56 59 63 66 68 69 67 66 68 73 77 81 87 94 99 103 107 109 109 108 109 108 108
32 34 38 42 47 52 55 57 60 62 64 64 65 67 68 68 70 72 77 82 91 96 100 104 108 111 109 107 107 107 109 108
36 41 45 47 51 55 58 59 60 63 65 68 70 70 70 70 74 79 84 92 98 104 105 108 109 108 105 108 109 106 102 99

GFSFLT2_250_spd_036.txt.gz
Wind_Speed
58 66 66 65 63 61 53 50 56 59 61 59 63 67 68 73 76 82 78 79 81 84 77 75 84 82 76 76 77 71 69 55
65 71 57 53 46 48 51 51 57 56 62 63 70 69 77 80 74 80 78 80 71 76 78 84 85 82 78 78 75 71 57 48
57 60 49 43 48 51 58 61 60 65 70 76 78 75 76 74 79 82 76 75 83 85 83 86 83 80 81 79 70 56 55 50
56 51 48 49 50 52 53 61 75 72 77 78 77 84 81 80 76 80 82 82 87 88 91 84 83 80 80 70 58 53 57 54
59 58 57 61 63 62 66 75 86 85 78 78 73 81 78 84 86 82 83 84 85 86 86 86 85 82 74 65 59 52 57 53
69 73 71 73 73 80 78 76 81 78 77 75 77 78 79 80 84 86 88 92 90 86 86 85 80 68 63 64 67 68 65 68
74 76 82 83 81 84 78 83 83 80 78 79 84 85 84 88 90 95 94 90 87 89 90 79 71 67 65 67 70 79 76 87
80 82 87 81 72 79 81 80 80 79 80 83 87 84 87 91 93 93 92 93 91 81 75 71 71 70 68 72 82 85 79 80
81 84 84 82 85 85 80 77 75 80 80 81 84 90 93 93 94 93 89 82 79 74 67 68 73 78 81 84 82 86 90 92
72 75 77 83 82 83 83 81 82 80 81 83 89 87 88 84 82 80 80 75 75 70 78 82 83 84 89 92 92 95 98 91
57 62 74 82 83 79 71 73 78 78 79 78 80 78 77 75 75 76 77 75 77 80 84 88 93 97 95 94 95 98 94 91
55 56 60 61 62 66 69 72 74 76 78 78 72 71 67 69 71 73 74 78 81 85 87 89 90 88 90 87 85 84 82 79
57 59 64 68 72 73 74 74 73 68 66 64 62 60 62 65 68 71 77 79 80 84 85 86 86 83 78 73 71 71 78 82
61 65 67 64 65 67 65 58 55 51 52 55 59 63 67 70 73 73 74 77 78 77 76 75 75 73 70 71 75 80 85 91
58 58 59 54 54 52 50 47 48 51 54 57 60 63 65 66 67 69 70 71 73 73 71 69 69 72 77 79 81 87 93 99
57 52 47 46 42 42 44 46 47 49 52 54 58 62 65 67 68 70 71 73 74 74 75 75 77 77 81 88 94 99 103 104
41 38 35 33 38 40 40 40 42 46 50 54 55 60 64 67 69 71 72 74 76 76 75 77 81 85 90 97 105 109 112 112
31 25 32 34 36 39 41 46 50 54 59 62 65 66 67 66 69 71 73 75 75 77 79 83 89 96 102 106 109 111 109 107
29 28 33 37 41 45 48 53 55 60 65 67 71 73 73 72 74 75 75 75 78 82 88 92 98 105 110 112 111 107 105 105
31 35 37 43 46 49 53 56 62 66 72 76 77 79 78 76 77 77 78 82 88 93 98 103 106 109 109 108 107 108 108 108

GFSFLT2_250_spd_039.txt.gz
Wind_Speed
57 64 66 63 62 60 61 59 60 54 57 47 47 50 59 58 58 66 68 74 77 82 77 73 81 85 84 82 84 84 86 86
51 45 54 57 53 54 53 54 59 48 45 51 54 55 59 60 64 74 82 75 75 80 84 85 85 88 83 88 87 87 87 85
53 55 57 55 55 55 60 68 52 48 45 51 58 63 68 76 80 82 82 81 80 78 78 78 83 88 89 90 91 86 84 84
54 59 62 60 61 68 70 64 51 57 55 60 63 67 71 77 80 78 75 78 79 82 88 82 85 88 89 88 87 89 80 72
61 66 65 60 63 62 58 52 57 56 59 64 66 73 74 79 81 85 80 82 82 86 90 86 92 89 90 91 89 81 75 62
66 70 66 59 52 48 53 63 64 72 73 77 77 84 88 86 88 95 91 91 89 88 87 90 92 92 92 86 81 78 71 60
46 51 54 57 56 60 60 66 71 75 80 82 77 77 79 86 87 87 87 88 86 87 92 96 98 92 91 87 79 75 72 72
59 61 65 68 74 73 77 80 79 77 79 83 82 84 84 90 92 87 91 92 95 95 91 86 88 86 80 76 76 77 77 83
75 71 73 78 74 77 79 83 89 89 87 83 87 88 91 92 97 98 96 92 93 94 86 84 79 77 76 75 77 81 83 83
71 73 75 74 77 80 80 85 87 90 94 95 97 101 98 94 90 89 92 88 91 87 84 80 77 77 82 85 87 88 90 87
62 60 65 70 79 83 79 79 84 88 90 91 87 89 87 90 91 85 83 78 77 76 78 80 81 81 82 83 85 85 83 80
57 63 64 62 67 69 71 76 78 74 74 77 81 85 86 87 79 73 73 74 75 75 76 76 76 76 76 76 76 75 72 70
55 51 58 63 67 66 59 67 73 70 68 69 71 72 72 70 69 71 72 72 72 72 72 72 74 78 77 77 77 77 76 76
56 60 57 60 62 63 67 69 72 72 69 67 64 61 62 59 59 59 63 67 69 71 72 74 78 81 79 77 74 75 77 81
58 60 60 67 69 68 67 64 61 57 56 56 54 52 50 55 60 64 66 70 74 75 75 76 77 77 76 74 74 74 77 84
54 56 58 60 59 56 55 53 50 49 46 47 49 49 52 58 65 70 74 77 79 77 77 78 77 76 77 78 83 87 91 93
51 51 50 49 47 49 45 44 45 44 46 50 51 57 63 68 72 74 78 82 83 80 80 78 77 80 84 88 92 98 102 103
42 41 43 45 43 42 45 45 44 45 48 52 55 61 66 72 75 78 82 86 83 79 80 81 84 88 93 97 102 105 105 103
35 38 43 42 42 45 48 47 47 48 52 58 63 68 73 78 80 84 89 89 83 82 85 90 94 97 102 106 109 107 104 103
36 37 40 43 46 48 52 54 53 54 61 66 71 77 80 83 86 91 94 89 86 89 92 97 101 106 109 109 107 106 107 107

GFSFLT2_250_spd_042.txt.gz
Wind_Speed
35 50 55 59 58 65 64 52 57 62 54 57 57 59 62 62 56 57 53 58 62 67 65 81 80 80 77 78 72 77 81 83
33 46 51 45 55 50 48 49 53 52 51 52 54 55 62 56 56 53 60 66 66 67 75 80 80 74 79 89 89 84 91 88
46 45 50 53 49 48 50 52 47 49 52 49 55 66 65 59 56 61 60 62 73 71 70 74 86 85 91 90 92 92 89 90
48 54 51 50 44 44 44 49 51 54 56 55 57 55 57 58 57 58 59 69 81 87 86 86 84 92 94 93 93 97 92 89
48 53 57 53 52 49 53 55 60 61 62 57 54 57 60 60 68 80 79 86 84 84 86 93 94 96 96 96 94 97 96 92
64 57 54 56 57 57 61 62 67 58 49 62 60 65 75 77 76 74 79 86 93 96 93 96 92 93 94 92 94 94 92 84
69 60 54 62 57 59 62 61 58 68 73 71 74 71 76 77 82 89 89 92 95 95 98 96 100 97 95 95 92 87 85 78
60 56 53 58 55 56 58 62 64 64 66 71 68 78 81 83 89 92 95 98 99 93 89 87 87 89 90 84 82 83 83 84
46 50 55 59 66 64 66 68 67 73 74 75 78 82 82 82 83 88 93 91 87 90 94 92 88 92 86 84 85 85 85 84
52 55 58 62 65 68 71 67 72 76 77 81 82 87 89 93 82 84 84 87 92 91 89 83 82 82 81 80 81 80 80 82
64 61 64 71 67 69 66 65 68 71 67 78 77 78 79 82 86 83 85 82 75 73 75 73 70 70 71 75 79 80 80 81
58 64 68 63 71 73 75 73 72 74 77 77 82 88 87 86 82 82 80 69 64 67 66 69 71 73 75 79 79 80 79 78
47 48 48 54 60 64 66 69 72 73 79 79 81 80 81 78 79 72 66 63 62 64 66 70 73 76 82 83 79 78 78 77
49 53 57 55 57 60 65 69 69 71 73 77 80 80 78 75 68 63 62 61 65 69 72 73 78 82 87 84 77 76 75 79
52 54 56 62 63 64 65 68 70 68 75 76 76 71 65 61 58 61 63 66 71 74 76 77 81 86 88 83 76 76 79 84
41 47 49 55 55 54 56 61 61 63 66 65 62 61 59 61 61 63 66 71 76 80 81 83 86 89 91 86 84 84 86 87
50 50 51 49 55 58 60 60 61 60 60 59 60 63 62 62 65 67 72 77 81 83 85 89 92 95 97 91 89 90 94 97
45 45 50 53 55 55 52 52 55 56 58 60 63 65 65 68 71 74 76 81 85 87 89 92 95 99 95 91 91 94 100 105
37 43 47 44 44 47 49 52 55 58 61 63 65 68 70 74 75 77 80 84 85 88 92 94 99 97 94 94 97 103 109 111
36 37 41 43 46 49 51 54 58 61 64 64 67 69 70 73 75 80 83 83 89 92 95 100 100 96 98 101 106 111 111 111

GFSFLT2_250_spd_045.txt.gz
Wind_Speed
39 35 42 51 52 38 42 51 55 58 60 59 50 52 55 53 56 59 61 61 62 62 59 59 56 48 61 67 67 68 79 79
40 31 24 28 36 39 48 50 50 49 47 51 56 59 56 59 62 60 59 55 54 57 61 55 56 61 63 77 82 87 90 94
38 30 23 32 49 55 53 53 52 54 59 50 47 58 59 62 52 50 56 60 62 61 58 59 69 77 80 81 87 88 89 95
46 39 37 34 44 52 55 46 53 48 48 48 48 58 55 53 52 52 48 46 57 64 73 80 84 89 86 90 92 100 102 96
46 43 43 45 46 46 51 49 56 47 49 45 53 55 59 56 66 68 72 71 73 75 75 81 82 88 96 102 102 101 93 91
52 50 49 45 51 51 50 54 59 53 58 57 62 64 62 63 67 71 75 77 78 81 86 83 87 91 90 89 88 91 86 85
55 51 47 43 51 51 57 53 56 59 57 56 62 61 58 70 67 70 73 74 82 83 89 94 94 98 89 89 87 90 84 81
62 56 42 43 51 42 54 55 49 52 55 57 63 67 70 72 78 88 83 86 89 90 95 93 90 85 87 81 79 73 70 73
54 53 53 51 57 58 49 57 57 56 62 64 67 74 73 78 79 79 85 88 88 88 89 83 80 81 77 74 72 69 70 71
54 62 60 50 50 59 63 65 57 65 61 70 73 70 78 78 79 82 83 88 85 86 81 77 84 78 75 74 70 70 72 75
49 54 63 65 65 66 59 63 62 65 64 71 77 80 75 79 81 85 87 83 80 80 83 79 79 73 70 71 74 77 79 80
51 55 62 66 68 65 61 60 61 70 72 72 75 77 78 78 80 79 82 84 83 81 79 76 71 72 72 75 79 82 85 86
54 61 58 56 58 59 58 62 60 67 70 70 66 68 74 75 76 80 84 83 75 76 74 73 74 75 77 81 85 88 89 90
46 51 55 61 60 59 60 57 62 63 67 67 71 75 76 78 75 72 73 72 74 71 73 77 79 80 83 86 90 88 90 93
48 49 54 61 62 65 70 69 72 74 74 72 71 68 69 69 68 71 70 72 75 77 78 80 82 85 88 90 89 89 92 95
39 39 46 54 50 52 53 55 53 56 61 62 62 64 65 67 69 71 73 79 81 81 83 85 87 87 88 90 92 95 95 97
50 48 48 51 54 58 57 57 57 58 57 59 61 60 65 68 72 75 79 81 80 80 81 80 80 82 85 91 94 97 100 103
45 48 49 51 50 47 47 50 51 53 54 57 60 64 68 71 74 75 74 75 76 79 78 79 82 86 90 94 98 101 104 102
43 41 35 36 39 42 44 47 51 54 56 60 63 67 69 70 70 71 74 73 73 74 79 84 87 90 95 100 103 104 102 104
31 29 31 35 39 43 48 51 56 57 57 61 62 63 66 71 73 71 72 75 79 84 88 90 93 96 102 103 100 103 108 113

GFSFLT2_250_spd_048.txt.gz
Wind_Speed
40 33 50 55 45 47 50 51 54 57 48 47 52 55 57 62 62 53 53 50 56 56 54 49 52 49 49 50 46 55 66 72
40 36 49 50 39 40 41 42 41 40 43 49 55 59 58 55 51 52 52 57 54 50 54 62 54 49 46 63 61 70 75 76
31 49 31 45 36 34 35 35 36 47 52 47 55 58 53 53 56 57 56 56 55 61 51 44 51 67 70 71 73 75 75 83
52 50 56 51 43 46 34 37 44 56 56 55 56 54 49 46 55 61 55 59 58 49 51 63 64 70 71 74 79 82 85 88
54 61 64 60 54 46 44 50 42 53 61 54 57 58 57 53 50 55 57 53 51 62 69 74 72 75 81 82 84 87 92 86
58 60 51 46 48 45 50 51 48 55 58 48 55 59 53 58 54 58 61 69 70 74 74 83 81 84 84 85 88 89 91 86
62 56 57 48 51 53 50 46 48 50 53 51 51 43 56 56 65 62 65 69 69 72 79 84 85 82 86 87 87 87 79 78
62 56 60 62 56 51 48 40 46 41 46 45 48 51 58 65 68 66 70 71 71 74 78 78 81 86 89 84 82 79 74 68
57 50 51 56 54 55 45 49 42 40 51 55 51 52 63 67 68 69 73 75 82 84 86 86 89 84 82 85 74 68 70 69
42 48 55 54 53 52 49 42 45 51 57 63 65 67 70 71 74 76 74 74 81 81 87 83 79 80 77 73 69 73 74 75
37 35 35 47 52 60 52 53 49 50 58 57 59 66 71 77 80 74 74 78 73 76 80 75 75 75 75 73 78 77 79 82
38 41 40 42 53 58 57 56 61 63 65 71 70 70 70 69 71 69 73 78 75 77 77 75 74 76 75 77 80 84 86 87
37 42 41 44 47 54 62 68 67 64 69 65 69 69 70 73 75 79 85 76 71 73 74 72 74 78 79 83 86 86 86 86
35 40 43 45 49 52 56 59 62 63 62 64 69 73 74 72 74 77 72 72 71 72 72 74 79 82 83 84 82 82 83 84
40 41 42 43 46 52 54 56 62 63 71 69 65 62 62 67 66 65 68 68 69 72 76 80 81 81 80 81 80 79 81 85
42 43 47 43 44 47 52 46 48 53 55 58 59 60 59 62 63 64 66 68 72 75 75 76 79 82 81 79 83 86 88 89
43 41 42 44 45 47 50 54 60 58 59 60 59 58 59 58 63 67 68 70 71 74 77 78 79 80 79 84 86 90 93 96
40 42 47 50 50 52 54 55 53 56 55 52 52 54 58 62 65 67 69 71 74 77 77 76 78 81 84 88 91 93 98 103
39 42 44 45 48 49 46 45 43 52 52 50 56 60 63 64 66 69 69 74 72 73 77 83 85 86 88 90 95 101 105 104
44 44 43 41 39 37 38 41 42 51 54 57 61 63 62 66 70 70 72 71 76 80 83 85 86 88 92 97 104 105 105 109

GFSFLT2_250_spd_051.txt.gz
Wind_Speed
37 30 33 36 42 43 46 49 49 52 53 54 55 55 57 58 56 51 55 55 55 54 56 54 57 53 56 49 45 50 52 57
54 32 27 29 41 41 44 48 49 47 45 46 52 51 49 43 49 52 55 51 48 51 51 53 52 53 55 50 57 59 63 66
56 48 45 41 39 46 46 54 50 45 39 42 40 42 44 48 53 57 57 49 47 50 55 50 53 59 55 54 63 70 74 74
51 42 53 58 50 48 51 50 51 51 49 41 47 41 46 53 59 58 59 56 51 54 46 53 56 55 59 66 66 67 71 75
53 58 55 59 54 56 49 50 52 50 45 49 48 44 51 57 65 59 57 51 55 49 51 49 49 62 65 75 74 76 79 79
51 58 51 56 56 57 58 60 54 46 43 56 60 52 51 49 48 59 46 55 57 49 51 61 69 67 75 79 79 83 79 80
56 60 58 66 62 59 57 60 54 57 54 54 59 51 58 51 51 47 49 49 51 62 60 59 68 75 78 77 79 79 76 72
53 56 67 60 64 61 63 63 61 57 56 53 54 53 55 50 47 44 48 55 60 67 70 71 72 78 84 82 77 77 81 77
44 58 68 63 63 58 58 63 59 58 58 56 48 41 43 46 53 56 63 67 71 75 79 78 72 73 76 79 82 78 73 70
38 47 59 64 58 59 57 60 58 50 46 45 51 46 51 62 56 53 59 66 73 74 74 76 76 82 81 78 72 68 68 71
35 41 45 55 54 53 57 56 51 47 49 59 50 55 59 59 62 68 74 76 71 77 78 80 80 73 73 69 66 68 73 76
35 35 38 45 52 51 54 54 59 58 58 57 54 58 58 62 69 73 71 73 78 78 76 71 71 69 68 69 71 75 77 79
29 34 38 40 48 43 41 43 47 55 67 66 68 71 75 71 70 72 73 75 72 74 69 67 65 65 67 72 75 76 79 82
24 31 33 38 40 44 44 43 46 51 55 62 60 62 64 68 68 68 69 71 71 68 68 66 67 70 71 74 76 79 80 81
30 31 33 36 37 38 39 41 44 49 51 54 57 54 58 57 62 64 66 65 63 64 65 67 69 73 75 78 77 77 77 81
35 39 33 34 37 40 44 47 46 47 51 54 53 56 57 62 63 63 61 62 64 65 66 68 72 75 79 77 77 80 83 84
31 29 30 34 38 41 41 45 48 50 52 55 59 61 59 59 58 57 61 66 67 67 70 74 76 79 80 79 83 88 91 91
28 31 33 36 37 42 45 45 47 51 53 52 51 53 56 55 56 59 67 68 68 72 74 76 79 79 80 85 89 91 93 94
29 31 33 36 37 41 43 45 45 43 40 44 48 53 55 56 59 65 69 70 75 75 77 78 79 82 86 89 91 94 96 97
32 35 37 38 40 39 38 38 36 35 39 45 52 56 59 61 63 68 71 74 73 74 78 79 82 86 89 92 95 97 99 102

GFSFLT2_250_spd_054.txt.gz
Wind_Speed
29 30 42 39 41 44 53 57 57 55 55 58 56 50 50 52 55 55 56 57 56 59 59 58 58 55 54 56 58 60 51 49
35 37 39 38 32 36 38 41 41 39 40 42 46 46 46 51 51 53 54 53 50 50 53 57 59 58 53 55 59 58 53 49
54 56 49 45 37 42 37 36 35 30 37 42 50 51 48 43 44 46 45 45 54 54 57 56 57 57 52 54 53 47 51 52
63 64 59 49 48 38 28 37 37 42 39 44 48 52 52 46 47 41 48 47 53 57 57 58 59 54 52 50 49 53 63 70
71 68 61 48 49 41 44 42 45 45 51 49 53 51 54 54 48 50 47 51 45 46 53 49 47 50 47 51 60 65 64 71
63 61 57 59 62 55 60 59 60 53 50 52 54 53 53 52 54 54 52 50 55 53 47 48 50 48 56 63 65 68 74 80
53 60 64 65 61 60 66 65 58 57 55 58 61 55 52 50 53 48 58 62 60 56 50 43 54 64 68 67 76 76 73 74
48 54 63 69 61 61 68 63 61 65 68 66 69 64 56 54 54 59 63 56 51 47 49 61 70 66 68 74 78 81 81 79
47 57 69 69 70 57 60 62 63 64 71 68 66 62 61 60 58 59 60 51 50 59 61 65 72 75 80 84 81 78 78 75
38 43 53 73 70 65 61 64 61 57 61 63 56 59 54 57 57 50 50 56 62 67 71 74 76 80 76 73 79 74 72 72
27 31 36 52 69 75 56 60 61 60 54 57 57 55 55 57 60 61 61 63 68 73 72 74 77 81 80 75 76 73 72 71
30 31 33 43 52 63 70 65 58 55 55 59 57 53 56 56 60 66 69 71 72 76 81 81 76 72 72 69 71 71 71 70
30 32 35 37 43 52 52 42 44 52 58 54 54 56 60 63 67 71 69 71 72 74 70 67 71 74 69 68 68 71 71 73
25 23 26 33 41 41 45 46 46 45 52 57 58 60 60 60 63 67 69 68 65 66 68 72 68 65 68 69 70 70 73 78
26 25 24 25 26 30 39 43 43 43 46 49 49 54 55 58 61 58 61 65 68 67 67 67 63 68 71 72 74 78 79 79
29 27 29 35 34 33 34 36 38 40 44 45 47 49 51 54 57 61 63 67 65 67 66 64 66 70 72 76 80 81 83 86
34 37 34 34 35 36 39 39 40 42 45 49 50 54 58 59 61 63 63 63 64 64 64 69 71 73 77 79 81 83 85 87
31 29 27 30 33 38 40 44 42 44 45 47 49 52 54 55 55 57 58 60 62 67 68 73 75 77 80 80 83 85 87 90
28 30 31 34 35 37 37 39 41 42 43 46 47 46 46 52 53 54 59 62 62 68 72 75 78 82 84 84 86 88 92 95
33 34 33 35 35 36 38 38 40 44 42 42 37 39 42 59 57 59 62 63 67 71 74 79 83 88 87 87 90 93 96 99

GFSFLT2_250_spd_057.txt.gz
Wind_Speed
28 32 45 51 47 55 55 53 56 65 64 67 64 61 64 64 64 60 60 58 61 60 59 61 61 59 63 58 60 59 61 60
53 33 34 26 39 45 47 47 47 48 48 54 52 54 54 51 47 46 48 52 56 58 52 54 54 58 59 59 60 57 59 60
58 47 48 46 51 46 42 40 38 38 40 41 46 45 42 43 46 49 49 48 51 52 55 49 53 54 55 57 56 59 59 57
61 51 52 53 47 46 41 38 40 39 38 33 33 34 39 42 51 45 47 50 54 51 50 53 53 59 56 53 57 52 55 52
66 60 54 58 48 40 41 42 43 43 38 37 41 51 49 48 46 50 55 56 54 55 56 51 54 57 58 60 63 66 56 56
72 71 63 59 56 40 45 47 50 47 44 55 55 58 58 54 60 59 55 49 52 54 58 60 60 62 61 58 58 52 62 66
71 74 69 63 60 59 56 61 55 50 58 58 61 58 54 57 62 60 59 59 57 57 55 62 66 65 70 57 54 62 66 71
71 69 70 70 68 69 65 63 57 59 60 64 59 54 57 60 62 60 60 59 60 61 61 66 65 65 63 57 63 74 80 83
56 64 70 74 72 70 65 61 61 66 65 65 63 57 62 62 66 64 63 64 65 62 57 64 65 62 66 71 73 76 80 83
55 59 65 65 67 67 68 70 66 65 61 66 68 62 64 68 68 67 66 65 70 69 70 68 63 66 71 73 85 81 84 80
38 49 51 62 71 70 73 75 76 64 57 61 58 57 60 64 66 63 66 62 62 63 63 66 68 76 77 79 81 75 76 81
34 43 41 50 50 63 75 79 75 74 59 62 60 56 56 59 62 62 65 65 64 65 69 74 77 77 77 78 77 78 79 75
26 33 37 31 31 44 47 57 61 66 48 47 66 54 64 62 61 58 61 57 64 69 71 78 77 77 71 72 78 75 75 75
21 28 33 35 35 36 39 41 50 58 62 55 54 50 51 55 54 55 59 66 68 69 73 74 69 71 76 78 76 74 64 68
25 27 29 26 31 38 43 40 42 47 49 50 50 53 56 59 60 63 67 66 65 64 67 70 71 74 76 75 69 68 72 74
25 32 30 27 27 29 30 33 41 46 49 51 48 49 52 53 54 54 56 60 65 70 72 72 70 68 68 67 69 72 74 80
30 27 30 34 34 32 35 39 41 42 44 46 50 51 50 54 58 58 59 62 65 66 66 67 69 70 66 68 73 76 80 86
35 38 37 35 39 40 38 37 40 42 43 46 48 50 54 55 55 57 56 56 59 61 62 67 70 71 72 75 77 82 89 90
37 38 39 40 33 32 35 37 41 44 47 50 50 51 52 52 52 51 41 48 59 64 67 70 72 74 75 79 83 88 95 99
29 29 30 32 34 36 38 43 44 45 47 50 51 50 48 49 49 48 47 55 67 70 75 76 74 77 80 85 88 94 99 98

GFSFLT2_250_spd_060.txt.gz
Wind_Speed
52 49 35 34 20 51 44 44 46 53 56 57 60 61 64 65 67 67 66 70 71 68 70 69 66 63 61 62 60 58 58 57
52 57 49 27 29 36 43 48 46 50 52 53 52 53 52 57 57 58 57 56 56 58 59 57 61 61 59 58 58 55 57 59
63 56 55 49 48 45 33 43 37 40 35 36 40 43 45 48 48 48 50 49 46 46 53 57 53 54 56 58 55 57 56 59
65 63 59 55 53 60 48 47 43 37 35 30 34 36 36 36 40 41 43 45 44 47 50 47 54 58 59 56 57 55 60 62
61 62 62 67 57 60 57 56 44 40 39 38 35 41 39 41 42 41 44 45 47 52 50 53 57 59 59 56 57 59 66 67
67 63 64 64 63 61 56 47 45 46 42 41 49 45 47 41 43 52 52 58 54 57 62 64 62 55 54 56 60 67 70 69
71 67 69 64 64 60 52 43 43 47 48 49 48 51 53 52 56 57 57 60 61 60 63 65 63 65 61 65 66 67 65 66
73 68 74 67 61 61 60 54 50 51 53 50 52 56 55 55 60 63 63 64 63 63 65 66 62 62 66 68 68 65 72 69
74 71 72 73 67 60 60 61 59 58 57 59 51 57 57 58 62 65 69 71 70 66 65 67 66 67 67 67 67 68 67 72
75 73 72 70 67 68 64 64 68 64 60 60 62 62 60 60 61 60 65 60 62 61 65 63 60 62 65 65 66 70 71 76
59 68 69 70 67 67 71 68 67 69 65 65 61 66 65 62 62 58 56 59 63 68 64 64 66 67 66 67 72 75 78 78
47 51 61 67 66 69 72 73 73 73 70 69 68 64 66 65 58 61 63 66 62 62 66 67 65 69 72 71 73 75 80 81
40 46 53 61 65 65 66 70 72 78 73 74 72 74 72 58 68 61 64 64 64 67 67 62 65 70 71 72 77 77 76 76
32 38 44 49 52 64 62 58 63 67 61 61 63 57 56 53 49 54 60 64 72 65 66 68 71 75 79 75 72 73 75 79
24 21 20 31 40 42 42 37 42 45 49 49 46 55 62 60 63 59 57 64 62 65 65 67 72 74 73 76 77 79 78 79
23 23 23 24 28 31 30 36 44 45 43 45 49 53 51 52 53 55 57 60 62 68 65 68 72 73 72 77 78 78 78 76
34 31 30 33 34 29 28 32 34 35 38 42 46 47 49 53 57 58 58 59 59 61 65 71 73 75 72 74 77 79 78 79
31 30 33 33 33 35 35 36 39 40 42 41 46 50 51 53 54 57 59 61 63 67 65 70 73 74 76 78 78 81 84 87
35 35 34 37 36 38 41 44 42 39 39 40 46 49 52 54 56 60 62 64 66 68 68 69 72 71 78 81 82 87 87 87
41 40 38 39 38 36 36 38 39 38 43 38 39 39 48 51 58 62 64 66 66 67 66 67 68 76 80 84 88 87 88 92

GFSFLT2_250_spd_063.txt.gz
Wind_Speed
37 30 46 37 37 42 43 38 34 30 32 38 43 48 51 56 53 57 57 59 63 66 67 71 72 71 70 68 74 65 64 61
52 44 55 31 31 52 36 42 44 34 33 35 40 40 44 48 48 47 49 53 56 57 60 60 62 62 63 59 63 62 54 56
54 62 54 62 43 43 66 44 50 44 40 37 35 37 39 40 41 44 45 46 51 52 49 48 48 48 47 46 53 55 57 58
57 76 68 70 67 54 56 50 44 44 46 37 34 32 30 30 33 36 41 42 43 47 51 52 50 48 47 45 52 54 55 57
73 63 62 61 62 62 57 58 52 50 50 36 37 37 34 34 34 35 40 44 47 50 52 55 50 45 48 50 59 57 63 62
79 77 69 66 68 68 63 60 60 52 44 38 40 40 40 39 37 40 45 48 53 52 50 49 50 53 54 56 60 63 65 64
76 80 67 64 72 72 69 67 66 60 54 48 52 49 47 47 43 46 49 52 52 49 51 52 53 60 61 62 63 67 64 64
77 83 84 73 72 69 71 67 64 64 62 59 58 58 57 57 47 49 53 54 54 57 56 58 65 63 67 65 68 67 64 64
71 72 78 69 68 68 73 69 68 67 62 62 60 59 56 57 55 53 55 55 56 57 62 60 65 67 67 66 62 60 63 65
76 72 81 73 68 67 74 76 64 66 68 68 60 60 60 55 54 55 55 56 58 56 60 61 59 60 65 63 64 67 68 71
58 65 67 69 73 72 72 72 66 62 67 68 67 62 60 58 58 61 64 66 66 66 65 64 66 64 66 68 70 74 76 73
41 55 62 65 70 71 73 72 74 69 65 61 61 65 67 65 67 69 66 63 63 63 62 67 68 70 68 71 73 74 74 72
39 44 52 60 69 74 68 73 70 72 68 66 66 66 66 68 69 71 73 73 70 63 65 69 71 73 70 72 74 73 75 76
41 43 45 48 52 68 70 74 74 70 69 71 73 72 73 73 75 71 66 67 62 61 57 57 66 66 71 72 72 72 74 74
31 38 44 51 57 65 65 71 73 73 70 65 61 64 67 68 64 56 59 64 62 66 71 70 70 71 69 70 71 74 77 81
23 29 35 39 45 49 54 56 56 55 52 46 48 51 52 56 58 62 68 67 63 62 63 63 65 69 73 74 77 79 81 84
23 21 24 24 24 26 31 36 41 40 42 45 50 51 46 48 49 54 56 57 58 60 62 66 66 67 72 75 79 80 82 82
26 26 30 32 31 32 35 42 40 35 37 39 41 44 46 50 52 55 58 59 59 60 62 65 69 72 76 76 76 75 80 85
35 34 33 31 31 39 38 36 37 38 40 43 45 48 49 48 50 55 58 60 62 62 65 67 71 74 74 73 76 79 83 83
41 38 37 38 39 38 37 39 41 40 43 45 46 44 48 48 50 56 59 58 59 64 67 70 73 72 73 75 76 80 83 87

GFSFLT2_250_spd_066.txt.gz
Wind_Speed
37 16 30 35 29 47 49 51 51 45 43 43 41 31 32 39 45 43 47 51 56 59 59 59 58 67 65 62 69 71 72 72
47 49 48 60 54 48 48 54 54 46 36 37 32 30 32 36 35 35 39 43 46 48 51 52 49 56 65 60 62 65 65 62
60 56 57 68 64 53 54 52 41 44 46 39 44 41 37 36 35 36 39 42 45 44 46 46 47 51 56 56 56 55 54 48
65 64 61 65 77 60 51 59 55 44 47 50 44 41 42 40 36 38 40 39 37 38 40 43 42 47 49 49 52 49 46 43
69 69 75 73 71 63 55 61 58 55 44 50 38 41 40 39 40 42 42 42 39 38 39 40 42 42 46 47 49 49 49 54
75 74 72 65 64 68 59 76 79 61 54 48 46 43 48 49 47 46 42 39 42 41 42 42 43 45 49 46 47 51 57 59
80 72 74 72 59 65 62 67 68 62 63 61 54 53 57 53 54 49 46 48 49 46 45 48 49 49 52 52 53 57 60 62
76 75 78 71 81 75 61 70 72 67 66 62 58 58 58 56 51 52 52 54 56 55 50 53 55 54 55 58 59 61 64 65
77 77 75 78 82 84 73 69 71 72 67 65 60 61 64 63 63 60 61 60 59 57 56 56 56 58 60 62 62 62 66 70
63 71 79 76 81 74 76 73 72 71 67 68 68 66 68 67 69 66 64 63 61 62 59 61 60 66 66 68 68 72 66 70
66 64 60 73 85 82 78 72 71 69 72 67 70 70 65 63 66 65 66 67 67 64 61 63 64 69 71 71 74 74 71 75
42 52 61 58 64 81 86 81 73 78 74 68 68 68 69 67 67 70 70 71 70 68 70 72 76 73 71 71 69 72 77 69
19 26 41 45 55 63 81 82 76 70 71 65 71 70 65 68 69 71 71 70 73 76 73 77 75 77 74 67 65 68 69 69
25 27 31 35 40 45 63 71 73 68 65 72 69 73 74 73 73 72 73 73 74 75 76 77 71 64 65 66 66 68 71 73
28 30 35 39 44 41 45 56 58 55 62 72 70 74 77 81 80 79 76 72 66 67 58 61 61 64 66 68 65 65 69 71
20 17 27 30 30 35 38 41 46 47 55 62 63 68 74 75 76 71 67 69 66 62 63 62 66 66 65 65 64 65 69 71
13 8 9 18 20 23 26 30 31 35 38 44 52 60 60 58 61 56 58 55 56 58 57 60 63 63 64 67 68 71 73 74
16 14 15 18 22 24 24 25 26 31 34 37 41 41 43 44 45 49 53 56 58 58 58 60 60 62 66 67 70 73 75 76
21 18 20 23 23 24 27 31 34 38 37 38 37 39 42 46 51 57 61 61 59 60 59 60 60 63 65 67 70 73 79 81
24 23 25 29 31 31 31 35 38 40 41 42 43 45 46 49 55 57 62 66 68 64 61 59 57 59 66 73 80 82 82 81

GFSFLT2_250_spd_069.txt.gz
Wind_Speed
37 36 33 27 27 25 27 35 37 35 44 46 43 46 48 46 47 42 35 31 34 41 44 45 48 51 58 63 63 63 57 53
52 50 41 41 34 33 35 31 34 36 45 44 45 46 44 40 38 35 39 35 34 38 42 43 48 45 49 50 48 50 46 47
55 55 54 49 45 51 45 37 49 47 43 46 39 36 42 40 40 40 37 37 35 38 45 44 42 43 45 42 40 42 46 44
61 53 51 48 49 48 45 41 51 55 45 41 45 43 40 41 43 44 48 46 37 33 38 40 35 34 37 39 39 39 37 41
61 51 53 47 51 61 56 55 67 54 47 42 44 44 48 45 43 43 46 43 39 36 42 39 41 41 38 40 42 43 42 44
59 59 57 57 56 66 68 64 68 54 53 54 49 41 42 41 47 52 44 44 44 46 43 50 50 48 51 51 51 49 50 49
61 61 60 63 66 62 57 73 81 63 58 63 59 48 49 41 44 47 51 49 49 48 46 52 52 53 54 55 56 55 58 56
63 63 62 62 63 67 61 67 66 68 67 58 53 46 47 48 48 50 53 51 52 51 50 51 55 57 58 55 60 61 61 61
68 67 64 61 62 64 54 63 50 43 56 71 67 62 56 57 60 61 59 55 51 54 54 57 55 54 58 60 61 67 63 64
69 71 73 70 72 68 65 56 50 56 63 68 66 68 71 65 63 61 61 59 59 61 59 58 56 61 63 65 67 63 65 73
65 74 75 78 71 75 72 69 63 61 60 65 65 59 63 67 70 69 66 64 62 60 61 60 61 64 65 68 70 73 75 74
64 67 82 83 82 82 77 73 72 70 69 71 72 69 65 64 63 68 69 60 64 60 62 63 63 66 67 68 72 75 72 65
57 68 77 83 87 82 81 82 78 76 74 72 72 68 75 73 69 61 61 64 71 72 72 68 68 70 72 68 68 68 67 66
56 60 75 82 82 82 81 81 81 77 81 78 78 77 76 73 72 74 67 68 70 70 71 71 71 76 75 72 68 63 62 65
35 51 74 76 86 80 79 75 78 77 79 80 83 77 85 79 72 70 75 75 75 75 75 76 71 62 60 61 62 64 65 69
28 33 46 61 78 75 79 77 83 74 77 83 87 75 78 81 81 78 75 72 62 59 62 63 58 56 54 57 59 61 63 63
22 24 32 34 41 47 50 54 62 57 54 56 59 58 66 66 58 49 57 54 59 54 55 54 51 52 58 60 60 64 64 61
22 23 25 27 34 31 35 37 35 36 38 40 41 44 44 42 43 41 44 49 51 52 53 53 57 61 62 64 65 63 63 66
19 22 22 20 19 18 20 23 25 27 27 31 32 32 34 38 41 43 46 48 48 50 50 53 58 61 61 62 61 60 62 71
27 21 23 24 25 28 28 28 28 29 30 32 36 39 40 41 39 40 41 39 44 56 53 51 53 53 53 56 61 64 70 76

GFSFLT2_250_spd_072.txt.gz
Wind_Speed
30 37 38 35 34 39 42 42 51 45 38 32 28 26 30 34 34 36 38 42 42 35 32 35 33 30 33 36 39 44 44 39
31 41 41 43 42 40 43 40 41 40 36 33 26 32 32 35 33 37 37 37 38 38 29 32 34 29 29 25 30 30 31 33
36 42 53 53 46 40 37 40 45 41 38 36 26 27 35 27 27 32 36 40 38 34 32 30 28 25 25 24 29 29 28 26
43 45 60 56 48 40 40 43 44 44 42 31 25 34 38 32 31 35 41 41 40 35 38 38 28 30 31 35 37 36 38 40
50 56 61 56 51 43 51 39 39 49 47 29 28 39 41 44 44 40 40 39 37 40 42 43 38 40 37 39 41 43 47 47
53 59 57 52 44 39 40 44 43 46 44 41 41 44 38 40 42 37 35 38 43 42 43 42 42 43 43 43 46 47 48 49
58 60 55 51 48 42 48 43 51 46 50 47 48 52 51 36 38 39 35 39 42 41 43 44 49 48 48 46 47 48 48 51
57 57 58 56 51 48 44 45 47 56 49 56 51 58 62 50 47 42 42 34 33 36 47 49 50 48 48 46 47 48 49 54
61 55 58 56 51 52 57 47 49 55 46 55 53 49 56 60 56 57 45 42 38 43 50 49 54 56 53 51 50 51 56 60
64 60 64 56 55 58 54 53 53 54 46 58 51 48 54 50 50 52 51 50 51 58 60 60 58 60 57 53 55 54 61 59
71 66 61 64 63 61 59 60 54 56 61 61 50 51 56 56 54 51 54 58 66 66 62 64 63 58 56 58 55 60 68 68
51 72 72 66 67 63 64 69 64 57 55 60 49 52 51 54 56 57 57 64 67 61 53 59 59 58 58 57 61 70 68 69
44 59 69 76 69 69 65 66 66 64 59 62 64 60 68 58 61 64 66 62 59 59 61 56 52 55 58 60 64 65 67 68
45 52 58 71 72 72 74 72 71 74 70 70 70 72 66 73 65 67 68 68 70 73 74 71 69 66 63 66 64 69 70 66
36 38 48 64 71 69 74 77 74 80 82 80 78 77 78 75 77 74 73 76 76 79 79 73 75 74 73 62 74 65 60 59
25 34 43 52 68 72 70 76 74 78 87 85 82 81 75 72 77 79 78 75 83 74 78 74 72 62 61 59 57 54 54 59
19 27 32 45 59 70 69 70 66 64 72 82 83 81 83 80 72 76 69 56 59 68 54 55 50 51 48 45 48 52 55 57
18 21 25 29 36 41 49 55 48 52 53 60 62 59 56 61 55 57 55 52 51 47 48 45 42 46 44 49 47 48 45 50
21 20 24 24 26 27 29 31 33 39 43 47 53 53 46 49 53 49 45 48 49 48 50 50 49 49 47 46 43 43 49 53
26 26 24 25 22 21 21 20 24 26 27 28 33 36 37 37 39 42 45 50 53 50 49 48 45 43 40 43 48 54 60 64

GFSFLT2_250_spd_075.txt.gz
Wind_Speed
28 34 41 45 48 30 36 48 46 40 34 36 37 35 33 39 32 27 25 26 27 24 24 21 20 15 15 16 14 12 13 16
31 33 34 38 38 38 41 50 51 44 40 42 38 34 31 29 26 28 26 24 26 24 25 26 22 15 14 13 10 11 17 16
32 34 39 42 42 47 42 52 52 40 47 45 39 36 28 32 31 27 25 27 26 26 26 27 26 24 18 17 13 16 21 24
27 36 42 50 49 45 42 42 48 53 60 54 42 34 33 32 30 31 30 30 27 29 31 30 28 26 23 23 26 31 33 37
19 31 41 50 51 45 43 44 47 51 53 52 44 34 34 30 28 34 30 32 34 33 29 35 32 32 32 33 41 39 42 41
22 29 40 48 47 47 51 42 39 45 54 49 42 39 30 24 30 35 35 39 41 42 38 38 39 37 40 45 41 44 43 43
25 32 27 48 51 49 48 46 41 42 48 50 46 36 30 29 38 37 36 35 39 38 39 41 38 40 44 48 48 48 48 48
35 35 32 50 53 49 45 46 42 45 42 45 47 44 38 35 40 35 36 38 37 39 36 40 42 39 39 43 42 48 47 50
41 42 35 48 55 49 45 42 41 49 47 46 50 51 49 47 52 50 46 47 46 45 45 49 42 37 40 38 45 54 55 54
39 52 42 49 60 55 44 42 46 49 46 49 51 52 51 53 52 59 57 57 56 51 51 41 37 44 46 47 52 56 56 50
32 55 50 50 60 59 58 43 47 45 35 46 43 49 48 51 55 56 50 47 49 48 46 45 46 48 56 55 63 64 58 54
35 40 62 56 55 63 58 48 52 55 46 36 53 51 49 52 45 54 51 57 56 51 55 55 53 54 61 62 64 66 64 55
32 34 42 64 62 61 63 59 53 55 55 52 40 57 57 56 57 50 59 56 54 58 56 56 58 62 65 64 69 67 67 69
28 32 29 38 66 67 69 62 57 58 58 56 58 54 48 60 59 60 59 57 56 63 57 60 59 64 65 71 73 67 59 59
19 23 26 33 40 68 76 75 66 59 62 65 64 65 64 64 60 62 64 66 71 73 70 67 65 71 72 66 60 59 54 50
19 23 26 31 37 43 56 69 71 66 59 63 68 72 65 71 70 69 72 74 76 74 73 75 74 71 69 53 50 51 51 52
11 18 24 26 30 35 40 54 59 61 67 67 66 67 75 73 77 81 81 83 72 70 64 53 58 51 48 47 49 48 47 48
13 14 14 20 27 29 36 42 41 49 53 55 59 56 60 62 62 64 66 68 70 65 50 46 47 46 46 47 46 49 50 48
21 18 15 15 18 21 22 25 30 34 34 38 37 39 36 37 38 41 40 39 43 42 46 44 44 48 48 48 47 47 51 56
22 23 21 17 20 22 21 22 25 29 30 32 34 34 35 37 36 38 38 39 40 42 45 48 46 50 52 49 50 49 50 51

GFSFLT2_250_spd_078.txt.gz
Wind_Speed
24 29 35 35 47 53 55 47 46 40 34 29 29 27 43 43 39 40 39 30 29 24 16 18 16 13 16 19 14 11 8 5
26 30 29 42 41 50 62 59 58 49 43 31 32 28 34 39 41 42 27 22 26 21 19 17 21 17 16 11 15 14 9 5
25 30 36 35 36 43 51 50 50 52 39 30 29 30 36 37 33 30 28 24 25 25 19 25 18 20 17 17 17 15 14 16
25 30 35 33 37 40 43 42 58 55 48 39 33 31 37 41 39 35 29 24 31 27 26 27 25 25 22 24 20 22 23 25
19 25 38 37 41 37 37 38 58 51 43 28 40 36 35 32 32 32 28 28 30 27 30 29 25 28 32 31 30 29 30 32
22 19 20 35 38 38 40 40 54 56 52 33 41 42 42 36 31 31 27 30 32 27 28 33 31 33 36 36 35 37 37 36
12 28 20 26 33 43 43 49 56 59 55 37 48 54 48 52 46 34 30 32 41 36 37 34 34 35 41 40 40 39 38 43
23 24 23 17 25 41 46 46 45 50 46 37 44 54 54 51 47 48 30 38 42 41 41 43 49 44 43 47 44 40 45 48
25 20 30 31 28 29 46 47 47 46 47 44 52 58 58 51 42 37 36 38 41 44 43 36 40 44 43 38 35 44 45 48
29 30 28 35 29 25 47 42 53 52 46 47 51 55 54 48 42 41 39 39 37 40 44 46 46 44 35 38 38 45 48 46
32 36 29 36 40 29 47 44 49 49 45 45 47 48 56 59 55 53 49 47 51 49 50 50 45 43 42 47 48 49 54 56
33 36 36 33 47 40 40 55 42 51 51 48 53 52 49 51 54 54 54 55 52 52 55 54 51 53 56 55 55 56 56 56
32 36 34 35 46 47 45 55 57 38 55 46 56 58 55 54 54 59 59 61 55 48 53 60 58 59 58 60 60 59 62 62
23 31 32 32 34 56 49 53 58 56 39 47 50 48 43 47 54 62 54 53 53 55 54 57 59 61 64 65 62 61 67 62
20 19 22 22 29 45 59 56 56 62 56 48 54 57 55 51 47 46 52 54 56 57 57 61 62 66 67 65 69 72 63 57
13 14 18 19 21 30 47 62 63 61 69 63 54 55 61 64 58 60 57 55 57 57 57 63 67 67 70 69 63 61 51 50
9 8 16 21 22 23 27 38 58 61 65 65 63 62 57 63 65 64 65 70 68 69 71 72 71 62 61 57 56 58 55 52
16 11 10 14 24 24 25 34 36 43 51 59 62 62 60 56 58 61 63 64 71 71 69 68 67 65 61 60 56 56 55 55
22 15 16 16 16 18 23 27 30 34 39 41 42 46 47 47 52 55 58 57 54 58 60 60 57 53 54 55 55 56 52 54
19 19 15 20 20 18 19 17 23 28 32 34 36 39 42 42 45 46 47 50 53 53 53 52 55 52 52 50 53 56 55 58

GFSFLT2_250_spd_081.txt.gz
Wind_Speed
29 21 19 19 22 34 42 46 42 55 42 31 28 21 31 36 45 47 41 35 35 34 25 26 28 23 16 18 18 17 14 12
25 12 18 28 33 38 46 48 48 48 41 36 32 25 27 33 35 38 40 32 25 23 27 28 23 19 16 12 14 14 10 9
23 19 23 26 44 45 55 58 47 44 45 45 38 39 30 24 25 30 37 31 32 34 22 25 21 22 20 14 15 14 12 15
23 21 29 34 47 50 52 65 54 56 52 47 49 45 36 25 28 32 35 35 32 30 20 23 21 23 19 19 16 17 20 21
19 22 29 34 37 42 50 54 64 53 54 48 47 45 45 29 25 30 38 40 35 29 28 27 32 25 26 24 26 23 22 26
21 23 27 34 39 38 41 47 53 62 59 53 50 48 39 29 29 32 34 34 27 26 31 34 34 29 28 29 31 31 30 33
24 20 27 27 27 36 38 46 49 54 57 60 54 38 35 32 26 30 33 32 27 30 32 30 29 30 32 33 33 35 37 40
27 26 25 27 23 27 33 41 47 56 61 59 46 38 38 32 30 34 28 28 29 29 32 34 30 34 38 36 40 37 34 33
33 31 28 31 29 21 17 40 43 48 59 52 50 35 43 35 33 37 34 44 34 32 32 40 38 40 38 42 41 39 32 32
25 34 33 33 32 27 27 25 43 47 57 58 48 31 37 38 43 39 44 41 47 32 36 40 45 43 39 48 43 38 35 40
24 26 35 28 39 33 27 20 43 45 55 64 60 42 42 45 47 45 54 44 45 36 41 45 49 48 46 46 44 46 45 53
22 22 29 34 29 38 31 22 28 47 53 58 56 46 47 49 48 49 53 48 46 47 50 47 48 42 44 49 49 50 52 61
22 23 24 28 36 33 39 30 30 44 53 39 54 52 48 50 47 52 54 52 55 51 52 54 53 50 50 53 59 61 62 64
17 18 21 23 29 36 40 39 33 45 44 50 47 49 48 46 50 52 56 58 58 53 57 57 56 53 51 57 62 66 66 61
16 16 18 16 24 30 32 44 38 36 46 46 47 50 53 53 55 54 52 53 55 56 60 62 58 58 62 61 66 66 63 66
20 13 14 20 20 26 30 44 43 41 46 45 46 50 47 56 51 57 60 57 56 57 62 62 60 62 64 69 68 66 66 66
21 14 12 13 16 25 29 41 47 47 50 51 52 55 52 51 52 49 58 64 68 68 65 63 60 64 65 69 70 69 69 70
19 19 13 10 11 18 22 32 41 50 50 51 54 58 58 59 57 58 59 61 64 67 65 66 68 68 72 72 73 71 69 67
19 17 17 14 14 14 19 25 33 39 49 53 56 56 59 61 60 58 61 67 68 69 71 68 67 69 70 71 71 67 69 68
20 18 17 19 16 17 16 18 25 33 38 44 52 59 60 59 61 59 59 61 67 66 64 66 67 66 68 71 70 66 65 63

GFSFLT2_250_spd_084.txt.gz
Wind_Speed
36 34 29 26 27 26 37 41 42 48 42 38 38 36 34 20 24 27 33 35 30 34 34 34 33 34 33 30 25 28 21 21
31 28 25 23 19 29 46 43 43 36 42 51 40 35 31 30 23 26 35 30 29 29 41 30 27 25 24 23 26 22 19 13
29 26 22 20 27 33 41 54 52 49 51 48 48 38 36 34 33 28 31 34 34 34 33 26 25 26 24 22 16 17 19 16
28 25 24 21 30 31 44 52 52 48 39 53 57 50 38 39 30 24 29 29 34 32 29 26 22 21 22 25 18 18 17 18
27 25 24 29 35 40 44 50 56 60 47 40 50 55 45 45 38 29 32 25 34 37 33 32 28 23 24 20 22 20 22 19
27 27 24 31 38 43 50 60 59 60 54 42 46 51 47 41 38 32 29 23 32 37 35 31 27 27 27 26 19 27 27 26
29 27 28 31 32 39 52 53 62 53 56 50 45 45 45 48 47 43 39 34 31 35 29 23 27 34 31 29 25 31 30 27
29 26 33 33 32 36 43 51 61 64 63 54 50 50 47 48 33 45 44 30 28 31 25 21 33 36 29 27 27 32 33 32
29 26 35 32 35 34 34 42 47 52 58 56 60 57 51 53 43 38 34 31 31 30 30 25 36 34 30 28 30 35 40 33
27 26 33 40 36 38 38 31 32 41 49 54 52 56 53 53 40 37 31 31 28 30 31 28 32 33 36 35 34 37 42 46
23 22 26 41 40 38 38 34 27 34 42 51 56 59 59 45 44 38 35 35 35 30 38 34 33 35 34 40 43 46 44 45
24 21 21 33 43 39 44 38 36 23 38 47 54 59 57 39 44 47 47 42 42 38 36 45 37 34 39 47 51 48 52 45
26 23 22 27 39 45 44 41 38 29 35 39 43 56 55 48 47 49 49 52 50 45 46 45 50 49 46 51 49 42 44 50
24 23 18 20 29 43 42 44 41 30 38 41 43 58 52 55 46 46 44 50 51 50 52 54 48 51 52 48 46 52 52 54
23 22 15 16 20 38 43 43 44 32 39 43 43 47 60 51 56 52 49 50 52 52 48 52 51 54 57 59 59 59 63 66
22 20 17 12 12 24 38 38 49 43 40 47 47 45 51 59 60 56 59 52 48 51 53 53 58 57 59 61 60 65 65 67
22 20 17 15 12 13 26 35 40 52 46 47 54 51 51 48 55 58 55 52 50 53 52 53 57 58 59 58 61 65 65 67
27 21 16 15 13 14 20 28 38 48 49 49 52 52 52 53 52 52 51 52 55 57 54 56 60 63 65 68 71 72 69 70
28 25 20 15 13 13 14 24 32 41 54 56 59 56 55 52 55 54 56 56 54 56 58 58 59 61 60 64 67 71 73 76
23 25 23 21 14 12 11 14 22 35 47 57 65 62 58 58 57 58 61 61 64 61 61 64 66 67 70 73 76 77 76 75

GFSFLT2_250_spd_087.txt.gz
Wind_Speed
41 41 40 35 30 27 27 33 39 42 36 29 42 43 31 35 40 40 37 32 34 38 40 38 34 29 32 31 31 30 31 33
42 39 39 32 26 21 20 29 44 44 38 35 37 38 40 33 35 30 27 23 21 22 24 27 30 33 23 27 28 31 24 31
42 40 36 31 22 20 23 41 47 47 46 46 40 43 42 36 40 35 34 29 27 24 23 22 25 24 22 25 26 21 26 21
40 41 34 31 22 27 31 46 43 48 44 42 43 51 49 46 43 35 31 27 26 23 26 25 26 23 21 15 24 23 25 26
40 40 35 29 24 30 33 46 47 50 48 39 34 43 58 50 47 35 33 31 28 23 28 28 24 26 21 12 25 25 31 22
40 37 38 30 25 34 36 48 52 53 49 55 40 39 55 53 52 40 33 31 29 24 20 25 26 29 27 24 28 32 28 24
40 38 37 31 26 38 44 47 47 58 58 57 60 49 44 58 56 55 37 36 29 26 28 31 29 29 21 27 27 31 26 24
39 37 35 32 29 31 48 48 51 51 61 59 62 49 45 42 47 47 42 37 35 38 34 36 31 34 19 33 28 32 28 26
37 36 36 32 31 35 40 49 55 49 55 62 59 52 46 40 38 42 43 39 36 35 33 31 28 30 26 36 37 29 23 23
36 33 36 30 30 38 39 49 57 59 57 68 62 55 49 47 47 43 43 38 37 37 35 30 31 29 28 39 31 28 25 31
37 33 32 31 30 38 43 40 53 65 64 68 67 64 60 53 47 49 47 42 39 35 36 33 32 27 34 45 36 35 29 37
35 31 32 30 31 30 47 47 41 51 62 66 68 69 67 63 54 56 54 44 42 36 40 34 36 33 34 41 40 42 41 40
33 30 29 30 27 30 37 49 50 53 44 41 54 57 53 64 60 62 51 42 45 41 45 39 41 40 41 45 45 42 40 41
29 27 27 28 26 28 34 45 49 53 51 45 35 48 46 52 55 56 55 48 52 45 48 43 44 42 45 45 46 49 52 45
27 26 25 27 24 24 33 37 51 50 53 46 39 36 46 46 48 55 55 40 48 48 51 51 50 47 43 45 50 49 51 54
23 25 23 24 23 17 24 36 44 47 51 47 38 35 39 40 49 54 55 52 44 47 45 48 49 49 57 50 51 53 51 58
19 24 23 22 22 21 16 25 36 44 44 50 38 41 47 42 47 50 55 48 54 54 50 52 49 52 52 56 53 55 56 59
20 23 25 21 19 20 18 16 29 42 41 49 41 43 46 48 45 51 53 55 57 57 54 58 59 57 55 55 55 56 58 61
21 21 22 23 20 18 18 17 17 27 41 46 45 45 49 49 49 52 54 55 61 61 59 58 58 58 59 59 59 63 65 66
25 23 24 20 23 21 16 15 16 19 31 40 47 52 53 54 56 54 57 56 53 54 57 61 60 60 61 62 63 67 67 68

GFSFLT2_250_spd_090.txt.gz
Wind_Speed
43 44 44 42 37 36 32 33 31 36 39 41 46 41 33 29 29 29 34 36 36 36 37 39 40 38 40 36 33 31 29 30
43 43 44 40 35 35 31 30 30 39 41 43 45 40 36 34 30 30 37 37 36 34 31 28 25 33 39 33 23 25 29 30
42 43 43 40 32 32 29 28 30 38 37 44 36 40 43 35 32 39 40 32 22 16 24 21 17 24 32 24 22 31 33 22
43 46 46 38 30 27 27 26 27 34 38 43 42 38 45 46 38 41 38 37 31 21 24 19 20 22 21 23 23 27 23 22
43 46 45 39 31 27 24 27 25 33 41 43 44 41 41 41 49 47 41 41 37 36 21 15 21 21 20 21 19 20 17 21
44 46 46 41 31 27 22 28 30 42 41 42 44 37 40 40 50 49 46 37 37 31 16 19 15 21 23 23 26 20 18 23
43 45 46 39 31 28 21 30 34 43 45 49 43 37 47 52 54 53 48 42 37 28 23 20 15 24 26 27 24 22 23 30
40 42 43 36 32 27 23 31 41 37 43 46 45 44 54 58 54 53 54 45 37 37 32 23 24 27 32 32 31 24 26 34
38 39 40 36 34 29 23 25 46 43 48 51 53 52 56 54 51 44 36 45 44 41 37 33 33 34 36 33 34 28 31 36
35 39 39 35 33 32 25 24 50 56 47 59 63 58 53 52 47 37 32 27 37 40 41 39 36 32 40 36 35 35 37 39
35 37 38 35 30 27 27 27 37 58 62 52 66 66 64 56 48 52 41 36 35 34 35 37 32 35 38 35 34 41 39 44
30 33 35 32 32 28 24 24 36 51 63 64 60 58 64 68 63 54 55 50 41 41 40 39 33 34 38 36 37 39 47 44
25 29 32 32 31 30 24 24 31 48 51 66 68 66 60 62 66 64 51 51 55 47 44 42 42 39 43 40 41 45 51 51
24 27 32 32 28 28 27 21 25 42 52 53 63 65 64 61 64 68 67 57 52 50 47 43 47 45 47 44 46 42 42 51
23 24 26 30 31 27 27 25 19 29 48 55 52 51 57 56 61 65 65 63 59 54 52 46 53 49 50 50 46 45 43 44
20 19 25 28 31 27 25 27 23 20 34 53 52 48 45 44 46 58 60 59 58 58 54 55 54 53 52 53 57 50 41 45
21 21 23 23 27 27 25 24 24 25 21 36 53 48 51 49 45 40 50 52 54 54 55 53 50 51 54 52 52 53 52 54
20 22 22 25 22 24 24 21 22 23 25 27 36 48 48 46 48 42 43 46 48 56 58 58 53 52 54 53 54 56 55 57
21 21 22 25 21 22 24 21 19 20 21 25 28 37 42 50 47 44 43 46 48 53 60 62 57 55 57 57 58 61 59 62
24 22 23 26 25 25 25 24 21 19 17 19 28 30 38 43 46 46 44 48 52 53 56 63 61 62 61 61 60 61 63 64

GFSFLT2_250_spd_093.txt.gz
Wind_Speed
38 38 40 38 38 37 40 37 36 34 34 36 32 41 37 40 34 27 16 21 22 18 19 25 29 30 28 30 38 38 36 29
38 38 38 37 37 41 37 33 32 30 33 39 32 37 44 42 38 31 30 25 25 21 23 25 27 26 29 36 34 33 34 34
39 37 39 39 40 44 35 31 34 35 34 38 32 40 48 45 44 30 24 23 26 25 19 20 19 19 19 20 30 29 27 26
39 37 39 40 44 42 35 32 33 31 32 38 33 45 50 50 41 32 27 22 26 12 21 23 14 15 17 15 25 27 29 24
37 39 37 41 42 37 37 29 30 27 28 30 33 48 45 45 36 28 27 34 24 24 29 19 17 16 21 12 22 22 28 28
36 36 38 40 38 37 34 26 25 24 26 25 26 45 38 42 37 42 38 38 29 21 26 32 26 24 20 13 20 21 19 19
34 36 39 39 39 39 32 24 22 23 25 22 27 40 38 39 40 44 46 46 38 34 32 33 29 31 25 16 17 24 27 26
33 36 37 37 41 38 31 25 20 23 27 29 34 36 36 39 42 48 46 44 42 38 39 32 26 26 25 18 20 22 30 30
33 35 36 37 39 35 28 22 21 25 32 32 39 40 40 42 48 46 53 51 49 43 38 33 35 31 32 31 31 29 35 33
32 33 33 35 35 33 25 22 21 24 39 38 42 42 48 50 53 50 51 42 42 47 42 39 38 37 33 33 38 32 33 40
30 32 30 30 34 34 25 22 20 25 42 46 46 49 54 53 59 58 57 53 45 36 29 35 37 37 36 29 29 37 34 42
28 27 27 28 31 33 29 21 18 25 35 50 52 54 55 60 61 62 61 59 48 36 28 28 29 34 32 31 30 34 39 43
27 26 26 26 29 34 34 25 20 20 28 55 54 54 60 62 64 65 67 60 59 58 43 39 38 40 39 41 32 37 41 40
27 25 24 24 27 32 31 29 25 13 23 39 64 59 57 62 63 63 61 58 59 57 56 55 49 44 41 44 42 34 42 47
28 22 23 21 25 28 30 30 28 19 12 24 49 67 67 63 62 62 63 62 64 61 58 53 51 53 51 57 49 43 46 49
27 23 25 19 22 26 26 28 27 24 14 12 26 50 68 71 62 65 62 62 57 60 62 61 51 49 48 49 50 49 46 50
26 24 24 18 19 24 25 28 29 23 23 17 11 26 43 57 60 53 56 52 57 56 57 58 62 58 52 55 50 54 51 54
28 25 25 17 18 21 23 26 28 28 23 20 19 14 21 35 49 48 47 48 47 44 43 52 54 60 60 58 57 55 55 60
29 26 27 19 16 19 22 24 26 26 27 23 18 19 16 18 34 43 43 47 48 44 46 48 51 51 56 62 60 58 55 54
30 29 27 24 18 18 20 23 24 24 26 25 22 20 19 15 27 41 40 42 46 47 50 45 49 53 54 54 56 59 60 55

GFSFLT2_250_spd_096.txt.gz
Wind_Speed
45 45 44 44 41 39 35 34 32 30 31 34 33 29 38 43 37 35 34 26 21 16 14 13 17 19 20 22 23 26 29 34
43 44 45 42 40 39 36 35 34 34 30 29 31 29 33 43 42 46 40 28 27 19 19 17 15 16 19 20 24 29 34 30
40 43 43 40 39 38 36 35 33 36 28 31 34 33 32 39 46 42 39 32 30 21 19 19 12 13 17 23 26 24 25 25
39 42 44 39 39 36 36 34 33 31 30 37 36 34 34 42 44 46 40 36 32 22 14 14 12 11 11 12 11 17 22 25
39 40 43 38 38 36 36 33 35 30 26 31 32 29 30 43 48 49 47 37 30 18 19 22 18 16 12 11 13 13 17 21
36 38 40 36 36 36 37 33 34 28 25 27 30 24 28 50 52 52 45 40 34 20 27 24 22 19 21 16 15 13 14 18
35 36 36 32 33 35 35 33 30 26 24 24 25 19 23 39 48 43 44 35 27 27 22 21 20 24 23 19 20 14 12 15
36 36 34 28 31 33 33 32 28 23 22 25 24 18 19 38 38 45 42 31 34 32 28 26 25 25 23 21 23 18 14 19
35 35 31 26 28 31 32 33 27 22 22 27 27 25 25 40 34 40 46 42 47 42 38 35 35 32 28 27 30 29 26 22
33 34 29 25 28 30 29 29 29 22 21 29 32 30 32 38 36 37 37 42 45 45 43 40 38 35 29 30 33 35 37 35
32 33 28 23 25 28 27 29 31 21 21 27 37 35 36 37 45 40 43 44 46 45 49 47 46 42 39 36 33 33 33 26
31 33 26 23 25 26 26 29 29 20 21 28 42 43 44 41 46 48 53 52 48 45 46 46 44 44 34 35 34 33 29 27
32 31 25 22 24 22 22 25 29 17 17 30 45 49 46 49 52 53 55 53 52 52 45 44 34 33 29 25 26 29 32 29
34 30 25 21 25 20 20 23 25 20 15 24 39 54 52 52 53 56 60 62 63 56 54 46 40 37 34 37 38 41 41 44
35 31 25 22 22 17 17 22 21 23 17 9 30 56 59 55 56 57 59 63 60 62 60 63 62 57 55 51 54 53 58 53
36 32 25 25 20 15 15 18 21 21 21 13 9 31 60 64 61 59 62 60 62 62 65 61 61 59 61 61 58 57 52 52
37 33 28 26 19 17 14 16 18 19 21 20 13 7 30 61 67 67 63 62 66 61 61 61 65 61 57 57 65 57 54 58
39 36 29 27 22 18 14 14 16 16 16 17 17 12 5 22 58 66 68 68 67 65 64 60 56 57 61 58 58 61 60 58
39 37 31 28 24 20 16 13 15 15 15 16 18 12 10 5 16 36 62 67 58 59 53 50 50 49 47 49 50 54 60 59
41 38 33 28 26 23 19 15 15 15 15 16 17 16 12 11 5 10 20 30 47 51 45 45 47 47 42 45 42 48 53 57

GFSFLT2_250_spd_099.txt.gz
Wind_Speed
50 49 45 42 41 37 39 40 37 35 31 32 34 33 35 36 45 46 34 36 35 32 18 25 25 30 33 34 36 34 31 31
53 52 47 42 39 37 36 39 36 34 30 31 32 31 28 32 44 50 42 40 39 34 28 20 15 16 22 24 24 21 23 25
51 50 48 40 38 37 35 36 34 34 30 30 33 33 31 29 35 45 46 44 42 38 31 24 21 17 19 20 20 20 23 27
49 51 48 35 37 37 35 35 33 32 31 35 33 35 38 35 32 40 48 46 42 41 34 28 24 18 20 17 17 16 17 18
46 49 43 36 32 36 33 34 31 32 32 34 33 36 34 35 33 38 47 51 46 44 36 28 24 18 16 15 9 9 8 11
50 50 47 34 31 34 33 33 29 29 32 34 32 33 31 31 34 45 51 54 47 44 35 31 26 25 22 16 10 5 10 5
49 46 48 35 31 31 32 31 28 28 33 33 30 30 29 29 33 40 56 53 49 44 36 36 28 25 24 20 14 11 9 7
48 49 48 36 28 31 32 30 27 28 30 31 27 29 26 28 29 39 48 57 47 44 41 32 27 31 28 23 20 22 15 10
49 50 46 34 27 30 30 28 26 28 29 27 24 29 28 23 27 36 45 53 46 38 36 33 30 29 22 24 20 16 16 22
55 49 47 34 26 30 28 27 25 28 23 26 23 33 30 25 29 35 45 51 45 38 35 39 35 30 27 26 27 21 22 26
52 49 49 33 27 29 27 25 24 23 24 24 25 34 34 31 32 37 39 44 47 36 43 44 40 39 32 30 27 25 30 28
50 50 46 33 28 28 24 24 24 21 27 24 26 36 41 34 34 44 39 44 49 45 45 47 43 41 38 38 36 37 31 30
51 48 41 33 28 28 23 24 23 19 25 22 23 33 47 39 38 42 42 43 46 47 51 47 48 44 41 41 41 33 29 33
53 46 40 34 30 28 22 23 21 17 23 18 19 29 49 45 45 44 50 49 48 50 50 52 48 47 44 36 34 29 26 28
51 49 41 36 32 28 21 20 19 16 16 17 14 23 50 52 47 50 52 57 55 55 57 54 53 53 43 44 38 36 36 35
48 46 40 35 34 29 24 20 17 14 13 14 10 13 37 55 52 51 54 58 58 64 62 63 60 54 52 52 48 45 53 48
44 39 40 36 36 30 24 22 16 12 12 10 11 6 15 53 59 56 59 53 64 70 67 60 60 60 64 60 60 61 63 64
37 42 41 39 38 31 26 23 16 12 11 9 9 8 4 18 60 63 64 67 66 67 67 68 64 63 62 58 61 60 62 62
45 46 44 42 41 34 29 26 18 12 10 11 9 10 8 5 24 51 68 70 70 67 65 64 66 68 65 67 63 67 68 68
50 46 44 43 42 36 32 28 22 15 11 12 11 11 11 9 6 19 37 68 73 70 68 70 67 63 63 57 56 53 50 50

GFSFLT2_250_spd_102.txt.gz
Wind_Speed
41 47 51 50 50 46 44 41 39 38 35 33 34 38 40 39 37 42 41 38 32 29 32 24 25 24 27 32 34 37 41 38
43 50 53 52 51 47 46 41 38 37 35 33 31 36 35 38 39 46 48 44 34 32 36 33 28 36 27 31 34 36 36 37
45 50 52 50 47 45 42 40 37 35 33 34 31 33 38 35 41 41 48 43 41 37 40 42 43 28 22 29 30 32 31 30
49 48 50 48 45 44 43 38 37 34 31 34 33 35 37 36 38 38 39 45 50 43 44 45 35 30 25 20 20 21 21 23
50 47 46 48 44 42 43 39 33 31 28 32 35 37 39 40 36 43 38 39 55 48 46 45 40 32 28 23 22 23 25 23
52 46 47 48 45 43 46 39 35 29 29 32 35 37 38 39 37 35 44 40 53 50 46 53 41 35 28 21 22 21 18 17
54 48 47 48 46 47 47 38 36 29 29 33 33 37 38 37 33 32 36 39 50 55 52 46 41 33 31 24 23 18 16 14
54 46 48 49 48 47 47 38 36 29 31 31 31 37 37 35 31 32 31 40 48 55 54 49 41 36 34 27 23 19 17 12
50 44 47 51 51 50 46 41 35 30 32 29 31 36 34 32 29 28 29 39 50 55 56 48 41 39 38 36 29 25 17 14
51 51 49 54 54 51 45 42 35 31 31 27 30 33 31 32 28 26 31 41 52 56 55 48 44 45 45 39 32 31 22 19
55 55 52 53 53 50 45 40 35 32 28 26 31 31 29 31 31 27 30 32 43 57 53 52 48 44 39 35 34 26 21 23
59 58 58 58 53 50 45 39 35 32 25 24 28 28 29 31 36 29 32 31 34 52 50 44 45 47 41 34 35 33 29 25
65 66 62 58 52 47 43 39 35 32 24 23 26 27 26 32 40 31 32 33 35 45 49 43 43 41 45 45 40 40 36 36
67 67 63 54 49 47 42 42 36 31 24 21 23 24 24 32 45 37 38 35 38 42 48 47 48 44 46 50 48 39 36 33
71 66 58 52 48 44 40 42 37 28 23 22 21 22 24 31 46 44 41 39 41 46 49 50 43 48 49 49 46 43 36 39
68 64 54 52 49 46 42 42 36 25 22 20 18 18 21 25 47 49 43 45 44 48 53 50 50 54 55 53 52 51 49 43
67 65 57 53 53 43 41 43 35 26 21 19 16 14 15 16 42 51 48 51 50 54 54 57 54 53 59 60 60 54 54 49
70 66 56 54 49 40 45 43 34 28 22 17 16 16 11 13 17 50 54 50 57 58 60 60 59 60 59 60 63 59 51 57
69 64 58 52 46 44 48 44 34 31 23 16 14 14 11 6 10 25 60 55 57 65 64 67 69 69 69 67 64 62 61 63
66 63 56 50 41 51 49 45 36 32 26 20 16 13 12 8 5 9 24 48 66 66 68 71 74 72 72 73 73 71 65 65

GFSFLT2_250_spd_105.txt.gz
Wind_Speed
47 45 45 47 47 48 47 46 48 46 42 37 39 39 37 36 36 35 34 38 38 40 34 36 22 24 25 27 24 27 30 28
47 45 47 50 49 49 47 47 47 44 40 38 38 38 36 35 36 34 33 35 45 44 41 30 29 31 29 29 32 32 30 31
46 48 51 54 51 47 46 47 44 45 42 39 38 37 34 33 35 36 37 36 42 49 46 37 37 35 31 36 39 36 35 33
49 50 54 55 51 50 49 49 47 47 42 37 36 36 33 33 36 37 37 37 38 46 49 42 39 35 34 44 41 35 33 34
53 52 54 57 54 53 51 48 45 43 43 35 36 33 31 33 36 39 40 38 41 46 50 46 45 45 45 43 37 28 26 24
53 53 55 57 55 54 53 50 43 46 44 37 35 35 35 35 37 38 36 34 39 44 50 46 47 48 51 45 33 28 30 24
54 54 54 56 57 57 53 47 47 47 44 39 35 34 35 37 40 39 36 33 37 43 47 48 45 48 49 37 34 28 29 24
55 57 57 55 58 53 49 52 47 47 44 41 36 34 35 39 39 36 32 31 33 44 42 47 45 47 46 35 30 25 19 22
59 57 58 54 54 54 51 48 53 51 45 41 36 34 35 39 39 34 31 29 34 37 45 47 44 43 46 40 31 27 24 21
59 58 57 58 54 55 52 53 52 51 45 41 36 34 36 39 37 37 32 29 31 39 41 49 51 48 46 41 38 34 27 25
58 59 60 58 55 57 53 58 53 53 45 40 36 34 36 37 36 36 32 29 29 33 42 50 53 53 47 41 41 37 32 31
61 61 61 58 59 61 58 63 60 52 45 40 36 33 34 34 37 38 31 29 26 29 38 52 51 55 48 47 40 38 37 34
64 62 60 60 61 62 63 66 61 48 43 38 37 33 33 33 36 32 27 29 28 32 31 48 51 54 52 48 45 39 37 38
64 64 63 62 61 64 65 66 62 47 42 37 37 32 31 32 34 29 27 33 31 27 28 41 51 52 50 49 49 45 41 39
58 61 63 63 66 69 69 70 62 48 40 36 35 31 27 31 33 26 29 34 33 27 28 32 47 51 46 44 52 50 50 44
67 67 72 72 71 72 74 67 64 48 44 37 33 29 24 29 28 27 27 40 36 30 29 37 49 51 47 39 47 45 53 53
72 73 75 74 76 75 75 70 62 51 43 37 32 26 22 25 24 24 26 42 38 36 35 40 42 51 47 52 56 53 56 50
77 79 80 77 75 77 72 71 58 51 40 37 32 24 23 23 23 23 25 45 42 43 42 44 48 52 53 54 59 59 58 57
79 79 82 80 80 73 71 64 55 49 38 38 34 24 22 20 18 20 18 49 49 47 49 44 50 53 55 61 60 60 60 61
80 83 85 86 79 75 72 59 50 46 41 41 35 26 21 19 17 17 18 31 56 50 51 55 53 56 59 58 61 61 63 66

GFSFLT2_250_spd_108.txt.gz
Wind_Speed
48 48 49 46 46 42 42 47 48 50 49 49 50 47 39 36 36 36 37 37 33 33 36 36 29 28 23 23 22 18 22 19
48 51 50 49 48 45 44 49 50 52 53 50 47 47 38 34 33 36 36 34 30 34 37 35 38 34 34 32 34 27 22 25
48 50 50 52 53 50 49 50 50 49 50 51 43 45 37 32 32 34 35 33 27 30 37 39 44 43 39 38 35 24 27 31
47 49 54 56 58 52 52 53 52 51 53 46 44 44 38 32 31 34 37 32 29 32 37 37 42 48 39 34 33 29 33 37
48 50 54 56 55 55 58 57 54 51 48 44 42 41 38 33 33 33 35 33 33 34 38 37 39 46 40 39 34 36 33 33
50 50 52 55 56 58 58 56 53 52 51 49 46 43 39 34 34 36 37 36 35 35 40 36 46 43 43 42 41 39 36 34
51 50 55 57 55 59 56 53 51 54 54 49 50 41 40 34 34 37 40 37 35 39 41 39 43 49 44 42 43 42 39 35
52 50 54 56 56 56 57 55 52 54 53 49 47 46 40 34 34 35 39 39 39 35 38 38 37 47 42 43 45 45 39 34
50 54 52 52 55 54 55 55 55 57 55 53 55 51 41 35 33 34 39 42 37 31 33 34 37 40 46 44 43 46 34 30
47 56 53 51 52 53 57 58 59 58 57 56 57 59 41 37 33 33 38 40 35 30 30 30 38 34 41 43 37 31 33 30
51 53 57 54 52 56 59 59 60 59 57 57 59 61 44 37 32 33 38 39 36 33 30 31 34 38 37 39 37 35 36 30
59 52 58 57 57 59 61 61 62 59 56 59 61 58 46 38 33 35 37 40 35 31 30 31 37 44 38 44 47 34 36 39
60 52 58 60 61 63 61 59 59 53 57 62 63 59 49 42 34 35 38 38 31 29 31 30 37 44 44 53 43 35 41 38
60 58 60 67 67 64 55 53 56 60 63 63 62 61 47 42 34 36 39 37 29 30 30 27 34 47 49 55 47 42 41 43
65 66 65 64 67 65 60 59 66 63 64 65 63 57 44 42 35 35 38 35 31 30 28 30 34 41 56 55 47 44 50 47
65 66 66 61 65 65 65 63 63 65 66 65 60 55 43 42 34 36 38 33 28 32 30 29 25 31 41 54 56 48 52 50
66 60 59 60 64 69 66 64 67 70 66 67 59 57 42 41 33 35 34 31 23 35 33 32 24 25 28 43 51 49 54 55
71 72 69 69 64 72 70 70 70 68 68 69 61 56 41 37 33 33 32 29 23 38 40 34 31 31 36 35 49 52 56 58
73 73 72 71 70 75 74 73 74 70 67 67 61 50 39 35 33 29 29 25 23 36 43 37 36 37 41 42 43 55 56 52
74 75 73 70 75 75 80 74 75 70 66 61 59 43 36 35 34 27 26 26 22 24 43 42 38 40 40 44 44 52 54 52

GFSFLT2_250_spd_111.txt.gz
Wind_Speed
48 49 50 47 49 45 42 42 39 40 44 46 49 49 53 47 44 42 35 32 32 34 35 33 31 30 26 28 32 32 25 20
47 47 49 48 48 48 45 43 43 43 45 49 52 48 49 45 46 42 36 31 30 31 31 32 30 32 33 33 31 28 23 24
49 50 52 46 47 49 49 44 45 44 46 51 50 50 46 47 47 42 35 31 30 30 27 27 28 32 33 39 37 34 32 32
51 50 51 47 46 50 50 45 45 45 46 45 44 49 50 47 47 41 37 31 30 31 31 29 30 32 32 41 41 41 35 33
52 50 51 48 46 50 52 46 46 47 47 44 45 48 49 47 44 40 35 33 32 32 31 31 31 33 34 41 43 42 33 35
51 48 49 48 48 49 53 48 47 46 47 46 50 51 47 48 47 43 34 34 36 36 33 33 32 35 36 41 40 39 36 36
51 47 49 51 48 51 52 49 47 48 47 45 50 52 47 45 52 43 35 32 35 38 36 35 36 37 38 40 40 38 34 33
51 48 51 50 50 51 50 50 47 49 47 49 53 51 50 47 50 46 37 36 35 38 35 34 39 39 41 41 46 39 39 37
50 48 45 48 50 52 49 46 47 48 47 52 55 51 49 49 52 51 38 36 35 37 37 34 36 35 36 38 49 47 41 41
45 46 55 51 49 49 48 49 50 51 49 54 54 51 52 54 54 53 40 38 34 34 33 32 34 29 31 34 42 45 43 35
46 46 50 53 46 49 49 48 51 52 52 54 57 54 51 56 55 50 40 36 36 34 35 34 33 29 29 35 41 44 42 31
48 49 50 51 54 50 50 48 52 54 55 57 58 53 57 54 54 51 40 35 36 35 35 33 33 30 32 39 41 39 36 29
46 48 51 46 56 50 49 50 51 55 54 61 55 55 56 55 57 54 40 36 34 36 34 33 33 30 37 42 43 42 39 33
42 47 51 51 53 54 50 50 51 57 56 59 55 59 57 58 60 55 45 36 34 36 34 31 32 30 41 45 43 41 35 35
47 48 50 51 51 55 52 54 56 57 57 56 53 60 58 62 62 56 42 36 34 36 35 32 31 34 41 47 43 39 41 40
50 46 48 51 53 60 57 54 56 56 54 53 57 57 59 61 66 57 41 36 33 35 36 34 31 33 35 42 49 48 45 41
54 48 49 52 57 62 64 58 54 53 58 59 57 60 61 61 62 50 40 34 32 34 34 32 33 36 34 36 48 46 49 50
61 58 52 53 56 58 62 57 57 58 62 63 61 62 63 60 58 47 40 32 31 35 29 30 35 32 38 35 41 55 46 51
67 65 62 57 58 59 66 60 59 63 63 63 61 65 61 58 54 45 38 30 31 33 28 28 38 35 34 36 39 41 49 57
71 71 69 67 61 58 65 64 65 64 63 63 65 68 67 62 51 41 36 31 31 28 29 25 39 40 35 38 38 39 44 55

GFSFLT2_250_spd_114.txt.gz
Wind_Speed
48 49 51 47 41 36 39 42 36 34 34 36 37 38 39 39 42 47 45 42 39 36 35 34 30 28 29 25 26 28 24 22
51 52 53 48 43 38 48 46 40 36 34 36 36 38 38 40 44 48 42 43 41 38 34 31 26 24 24 22 29 33 26 23
52 51 48 47 46 42 48 48 42 38 34 36 35 38 38 42 45 45 43 45 44 41 34 28 26 24 23 25 29 31 30 22
58 56 50 49 49 44 48 49 45 42 37 38 36 36 39 40 43 43 43 46 44 41 35 29 28 26 24 24 29 32 31 34
52 53 54 51 50 44 46 51 46 44 39 38 35 36 37 39 43 41 41 46 44 38 37 34 30 26 25 27 29 34 36 40
54 54 51 49 45 43 48 47 47 42 41 39 38 37 38 40 44 45 44 49 47 38 37 35 35 31 27 28 31 35 37 40
54 50 52 50 47 44 47 46 46 45 42 39 40 38 40 42 44 46 47 49 50 43 36 34 37 38 34 31 32 37 36 39
45 48 49 50 46 43 45 45 46 47 45 42 41 39 40 43 45 45 47 48 50 45 37 35 39 38 34 31 32 37 36 39
48 47 45 46 46 42 44 43 47 48 48 44 42 43 44 43 43 46 50 46 50 48 38 34 35 36 32 29 32 35 35 41
51 51 50 48 44 44 42 43 48 52 48 47 43 44 44 42 41 44 50 45 50 53 38 34 34 34 31 30 32 34 36 43
42 44 47 53 46 42 42 43 42 47 48 46 46 46 44 43 40 47 50 49 51 54 41 34 34 32 30 32 33 33 37 42
41 41 44 48 45 45 46 44 43 43 46 46 46 47 45 46 44 48 51 50 53 50 41 34 34 33 32 33 32 34 35 40
39 37 41 43 42 46 50 45 41 39 44 47 47 47 47 48 47 48 53 51 54 54 42 35 34 34 31 31 30 36 40 37
38 36 41 41 40 42 44 46 46 46 47 49 43 47 49 50 49 47 51 55 55 54 43 34 33 33 29 31 31 39 42 44
45 41 41 44 42 41 42 43 41 42 47 47 45 49 49 49 47 49 54 54 56 49 41 34 32 34 29 31 33 44 45 43
50 48 47 46 43 44 46 48 48 45 46 48 46 49 47 48 49 54 51 54 55 51 40 34 31 33 30 28 36 47 47 43
54 52 49 45 44 39 42 46 45 45 48 52 52 51 50 54 54 55 53 55 57 52 41 34 31 31 28 25 38 48 46 47
58 54 51 49 46 39 38 48 50 47 51 55 53 52 49 54 56 56 56 58 55 48 40 34 31 30 24 29 38 47 50 50
61 58 55 53 52 51 51 55 57 53 52 55 52 52 50 54 56 57 59 56 53 44 38 34 33 31 22 34 37 36 44 48
65 62 60 60 60 59 59 58 61 59 56 52 55 53 50 53 61 63 57 51 47 40 35 34 32 31 25 32 40 40 43 54

GFSFLT2_250_spd_117.txt.gz
Wind_Speed
56 52 48 47 45 43 47 41 38 34 28 30 30 27 28 28 27 31 36 43 45 45 44 38 32 32 26 26 27 25 23 19
59 56 49 47 47 44 46 45 41 40 32 32 33 31 29 29 27 30 35 40 43 46 45 39 34 25 23 22 23 24 25 18
60 60 54 49 48 48 43 43 44 41 36 32 34 32 31 29 27 29 35 39 44 46 47 43 33 27 26 25 26 24 23 23
59 58 57 54 50 50 49 46 46 44 38 34 36 34 33 30 30 30 34 39 44 46 48 44 39 30 26 26 27 24 25 24
60 58 54 56 49 48 46 45 47 47 37 33 36 32 34 32 33 32 33 39 44 43 44 44 41 34 28 25 26 27 22 29
55 59 55 53 50 47 45 46 46 43 41 35 35 34 34 34 34 31 35 38 42 43 43 44 44 34 30 28 26 27 25 27
56 59 58 51 52 51 51 47 45 43 42 38 35 36 38 37 36 33 35 39 40 42 43 45 46 40 30 31 32 30 32 31
54 52 52 52 55 55 53 49 44 44 44 40 37 39 42 42 39 37 37 38 39 41 44 47 48 44 32 30 33 34 34 35
58 52 47 44 46 48 44 43 42 44 43 40 38 40 43 44 40 37 40 39 40 41 44 45 48 47 36 30 31 31 33 33
62 53 49 46 46 46 43 40 39 42 44 40 37 38 43 41 40 38 39 40 41 42 43 45 49 47 38 31 29 31 31 33
61 54 50 49 48 46 46 45 41 42 42 38 34 36 40 39 40 39 39 39 42 42 43 45 49 47 39 32 29 29 31 31
63 57 52 48 45 41 40 43 45 46 43 42 41 36 37 38 38 40 40 42 41 41 44 45 47 46 38 34 31 29 32 34
65 57 53 46 44 41 40 41 41 41 43 44 44 37 38 37 38 39 41 43 41 43 45 45 48 47 40 35 31 30 32 33
64 57 52 48 47 45 40 41 42 42 41 42 44 43 40 37 38 40 41 43 41 42 44 47 49 48 42 36 33 31 32 32
64 59 53 55 52 48 42 44 43 38 40 41 45 40 35 38 39 41 42 41 41 44 48 49 51 49 42 37 34 31 33 33
63 59 58 58 54 50 47 45 43 43 38 37 41 45 44 39 40 45 43 43 44 46 48 51 54 47 41 37 33 32 34 33
64 63 63 60 56 50 48 42 44 45 35 35 39 41 41 37 44 48 49 48 44 44 47 55 51 44 40 36 34 30 33 34
68 69 66 61 57 52 49 47 45 41 41 49 53 48 42 40 47 48 48 44 42 46 50 53 47 42 40 36 33 29 30 35
72 70 68 64 58 54 52 52 48 44 43 35 52 54 43 41 45 45 47 44 46 49 53 50 41 42 40 35 34 29 32 39
74 71 69 65 62 57 56 56 53 51 52 48 53 55 55 51 45 46 49 50 50 51 51 46 43 43 39 36 35 30 35 41

GFSFLT2_250_spd_120.txt.gz
Wind_Speed
67 64 61 56 50 51 50 49 46 42 41 36 33 29 25 25 27 28 24 21 25 28 34 42 43 37 35 24 23 23 25 23
65 67 61 54 50 49 51 52 49 45 39 37 36 33 29 26 26 28 26 25 26 29 33 39 41 40 36 26 23 21 24 22
61 63 60 50 48 49 52 54 51 48 43 42 39 35 30 27 30 29 28 27 28 30 32 36 38 39 37 29 21 24 25 22
59 62 60 52 51 55 53 52 53 49 46 44 39 36 32 32 28 27 30 28 26 29 32 34 38 39 38 37 19 23 26 25
58 60 60 58 56 57 56 55 53 50 45 43 41 40 36 33 29 28 30 29 27 30 32 33 37 40 39 37 24 22 26 26
55 57 58 62 63 62 59 54 52 50 43 44 42 42 37 35 31 30 32 33 30 30 33 33 37 39 39 38 31 20 24 28
59 60 59 56 54 53 53 49 51 45 47 47 48 43 39 36 32 32 34 37 32 32 34 33 36 37 40 41 36 25 25 28
65 66 61 60 54 50 49 50 48 46 48 50 49 45 41 37 37 33 35 37 33 33 34 33 36 38 39 40 37 28 27 28
67 68 67 63 59 56 52 46 45 47 49 49 43 42 39 38 36 33 35 35 33 33 34 33 35 36 38 40 38 31 24 28
69 70 71 65 64 59 51 45 44 41 40 41 43 44 39 38 33 33 34 34 33 33 34 35 33 35 36 39 39 34 26 28
69 73 75 67 63 63 51 46 45 45 44 42 43 43 39 38 33 32 31 32 32 35 35 36 33 33 35 40 41 37 30 29
67 74 77 68 61 62 55 48 45 47 47 47 47 47 42 42 39 32 34 31 32 35 36 35 33 33 35 40 43 41 34 29
66 76 78 68 62 62 56 52 47 42 44 43 44 48 46 43 42 36 35 35 34 33 36 37 35 36 38 41 45 42 37 30
68 81 80 69 65 64 58 53 47 43 44 43 41 44 43 41 41 39 39 36 33 34 36 37 35 38 39 43 46 43 37 30
69 79 77 70 67 67 60 53 49 46 44 44 39 41 42 43 41 36 32 34 32 33 37 37 38 40 40 43 45 44 37 32
71 76 77 73 71 68 62 57 51 47 45 41 37 36 38 39 37 34 34 37 33 31 37 41 40 39 43 44 45 44 39 34
72 76 78 78 73 69 66 59 55 49 46 43 40 36 35 32 31 32 32 36 35 34 39 37 38 40 45 46 44 44 41 33
73 78 79 80 76 73 69 63 57 50 49 46 43 43 41 38 39 38 44 49 38 39 39 39 38 43 46 46 45 45 41 34
71 75 79 80 78 75 70 65 58 52 51 48 45 43 46 36 41 48 55 45 39 42 43 45 44 46 48 47 44 43 43 34
68 75 79 80 79 76 72 68 61 56 54 53 52 44 42 26 35 39 42 45 46 47 46 46 45 46 49 45 42 42 44 36

GFSFLT2_250_spd_123.txt.gz
Wind_Speed
58 63 63 59 57 55 55 57 52 49 45 42 41 39 36 34 34 33 27 29 28 29 28 30 30 31 32 33 32 23 18 16
56 55 55 54 51 51 50 53 53 50 45 45 41 40 36 35 34 33 29 30 28 27 28 27 28 29 30 33 31 28 17 16
55 57 56 54 50 49 47 50 49 48 45 48 45 43 41 40 38 33 29 30 28 26 25 26 27 28 29 32 32 31 20 18
55 56 58 55 53 48 48 50 51 50 49 49 45 45 45 41 38 34 31 30 28 26 25 27 27 28 30 29 32 31 21 19
54 55 59 58 53 53 49 49 49 48 51 49 48 48 48 43 37 38 35 30 26 26 26 30 28 27 29 29 32 30 25 19
59 56 58 62 59 56 50 49 48 49 51 51 49 48 49 43 39 37 35 31 26 28 29 29 29 29 29 29 31 30 27 19
62 60 60 64 65 61 53 49 46 46 49 49 46 47 45 44 42 39 35 35 28 26 30 29 29 29 28 29 31 33 28 22
70 61 57 64 68 66 59 52 47 46 45 43 45 47 44 45 44 41 38 37 32 25 29 29 29 29 28 28 29 31 30 28
73 67 61 58 68 70 64 57 49 50 49 44 44 45 45 47 46 40 36 34 32 31 28 30 28 30 30 29 28 32 32 31
79 74 65 63 70 68 67 61 53 50 52 51 48 45 46 48 42 37 35 32 32 32 29 29 29 31 31 29 28 32 35 33
75 77 78 67 68 71 66 64 55 54 52 52 48 43 41 43 41 38 38 35 31 30 32 31 31 31 32 29 28 32 36 36
81 75 75 68 63 70 69 65 58 56 51 49 46 43 44 44 43 44 41 37 30 32 35 32 31 30 32 31 30 33 35 38
88 82 80 69 58 63 69 68 62 60 56 49 49 45 45 47 49 48 45 40 39 36 34 32 32 29 34 31 32 34 35 39
90 85 76 69 58 61 66 71 66 63 58 53 50 46 44 44 47 44 41 40 41 41 41 38 32 30 33 30 35 34 37 41
94 85 80 67 63 60 61 70 71 65 62 58 55 50 43 44 45 40 36 37 39 37 34 34 35 32 30 36 33 34 38 42
91 84 73 66 60 61 64 70 73 69 67 60 55 49 46 46 43 37 38 40 40 38 38 32 34 32 31 34 34 36 39 45
91 85 74 70 68 70 65 67 76 74 69 61 56 50 47 43 37 32 33 30 32 30 30 30 31 35 33 36 37 38 42 42
88 87 84 79 74 71 61 65 75 75 70 62 59 54 50 47 41 40 38 35 35 41 35 38 37 36 37 38 42 45 44 42
91 89 85 78 72 71 66 69 73 75 70 66 60 54 51 53 46 45 45 46 46 46 44 40 37 37 36 42 45 45 44 42
84 82 78 77 74 69 72 70 73 76 71 66 62 55 53 53 50 44 48 53 50 46 42 46 43 40 43 46 46 47 45 44